GFSFLT1_925_thetae_003.txt.gz
Theta_e
328 325 324 325 325 324 323 324 325 324 325 325 325 316 323 324 326 326 325 319 325 324 323 323 323 321 320 321 320 319 319 319 319
328 325 324 326 324 324 322 322 324 325 324 325 325 315 322 323 324 326 325 322 324 323 323 323 321 321 318 320 319 318 317 316 317
327 325 326 326 328 327 324 323 323 325 324 325 325 314 321 321 322 325 324 322 324 322 321 321 322 320 319 318 318 317 317 316 316
327 325 326 328 329 326 324 321 322 324 325 324 324 313 318 320 320 323 322 319 323 322 320 320 320 321 319 317 316 316 317 316 316
325 325 325 328 327 325 322 317 318 320 324 325 320 314 312 319 320 319 321 317 322 321 317 317 318 318 316 316 316 314 315 315 315
323 325 324 325 325 323 320 316 317 321 322 322 318 313 309 317 319 319 321 321 322 320 319 315 316 316 315 313 313 316 317 317 316
325 326 325 325 325 324 320 317 316 314 315 316 312 311 308 314 317 320 321 322 321 321 319 317 315 316 317 317 316 317 317 318 318
325 327 326 325 325 324 320 318 314 310 311 312 314 316 311 310 314 316 320 320 323 322 322 321 320 318 318 318 318 319 318 319 319
325 326 325 324 323 321 322 321 320 311 309 314 315 315 316 311 313 312 315 319 322 323 323 324 324 323 320 319 319 320 320 320 320
325 324 324 323 323 322 321 321 321 318 317 314 314 314 313 314 313 312 310 312 316 321 322 322 323 324 324 321 320 320 321 321 321
325 324 323 322 323 322 320 321 321 320 318 317 317 313 312 311 311 311 311 309 309 310 319 320 321 322 322 323 322 320 321 322 322
326 325 324 322 322 322 321 320 321 320 318 317 318 319 316 314 312 310 310 310 310 310 311 316 318 319 320 320 321 321 320 320 321
325 325 325 324 321 322 322 321 321 321 320 319 318 318 319 319 315 313 313 312 310 310 310 310 311 314 318 319 319 320 320 321 320
325 325 325 325 323 321 322 322 323 323 322 321 321 320 319 319 319 317 315 314 313 312 312 311 310 310 311 316 318 319 320 320 321
325 326 325 325 325 322 322 323 323 323 323 323 322 322 322 321 320 319 319 318 316 314 313 313 312 311 311 311 315 316 318 319 321
327 326 326 326 326 326 324 323 323 324 323 323 322 322 323 322 322 321 320 319 318 318 318 316 315 314 314 312 312 313 316 317 319
331 329 328 327 326 326 326 324 323 323 323 323 321 323 322 322 322 322 321 320 319 318 318 317 318 317 316 315 314 313 315 317 318
332 332 331 329 327 327 327 326 324 324 325 324 323 322 322 314 320 321 321 321 320 320 319 319 319 319 318 318 316 313 312 315 318
332 332 332 331 330 329 328 328 328 325 326 325 324 324 322 318 319 320 320 319 319 319 320 320 320 320 319 318 316 315 313 313 317
328 330 332 332 332 332 331 331 330 329 327 327 326 324 324 324 322 325 322 322 322 321 319 320 320 318 315 314 314 313 315 317 318

GFSFLT1_925_thetae_006.txt.gz
Theta_e
328 325 325 325 325 324 324 325 325 325 324 325 326 315 321 323 325 327 325 319 325 324 324 323 323 321 322 321 320 320 319 320 320
327 326 325 326 325 325 323 323 324 324 324 325 325 316 321 322 325 325 325 323 326 324 324 323 322 320 319 321 319 318 317 317 317
327 327 326 327 328 327 325 323 323 325 325 324 326 316 320 321 322 325 324 321 324 323 322 322 322 320 318 319 319 318 317 316 316
330 327 326 329 329 328 326 323 323 323 325 324 325 319 318 320 320 325 324 323 323 323 322 321 322 321 319 317 318 318 317 316 315
325 326 325 327 329 328 326 323 321 321 324 325 324 321 313 319 319 323 323 322 322 324 321 320 320 320 320 318 316 316 316 316 316
324 324 325 323 324 326 324 322 320 317 318 322 324 320 313 314 319 319 320 321 323 323 322 319 318 319 318 317 317 318 317 317 317
324 322 325 325 322 323 324 323 319 316 317 318 320 320 314 310 315 319 319 322 325 324 322 321 318 317 317 317 317 317 318 319 318
323 324 326 326 325 324 324 323 320 317 313 312 314 315 312 310 309 317 318 319 326 326 323 322 320 318 317 318 318 319 319 319 319
323 324 325 326 325 325 323 321 319 318 315 310 311 311 313 315 310 310 316 318 326 326 325 323 323 322 320 320 320 320 320 320 320
324 324 325 325 324 323 322 321 321 320 320 313 309 312 314 314 316 309 312 312 316 323 325 325 325 325 325 324 322 322 321 321 321
326 325 324 324 324 322 322 322 320 320 320 319 317 315 314 314 313 313 314 313 311 311 320 323 324 324 325 325 325 324 322 322 322
327 326 325 324 324 323 322 323 321 320 321 320 319 317 317 316 314 312 311 311 311 310 315 318 320 322 324 324 324 324 325 323 322
327 326 325 325 325 324 322 322 321 320 320 320 320 319 317 317 318 318 316 313 311 310 309 310 312 316 317 319 321 322 323 324 324
325 326 325 325 325 325 324 322 321 320 320 321 321 321 320 319 319 318 319 319 316 314 313 312 311 310 312 315 317 319 321 322 323
326 325 325 325 325 325 324 324 321 321 321 321 321 321 321 322 321 320 320 319 319 318 317 316 315 314 312 312 315 316 318 319 321
328 328 327 327 325 325 325 324 322 322 321 321 321 321 322 322 321 320 320 320 319 319 319 318 317 316 314 314 313 314 316 317 318
332 331 331 329 327 326 325 324 323 322 322 322 322 323 324 323 323 322 321 320 319 318 318 319 318 316 315 316 317 316 316 319 319
332 332 332 331 329 327 327 326 323 324 325 323 323 324 325 315 322 321 321 321 321 321 320 318 319 319 318 317 317 317 317 318 319
326 327 329 330 330 328 329 328 326 325 324 326 323 323 325 325 327 325 322 322 321 321 320 320 319 319 319 319 319 319 320 319 319
315 315 317 325 329 329 329 329 328 328 327 327 327 324 323 324 324 326 324 324 323 322 321 321 321 319 318 318 319 320 320 318 317

GFSFLT1_925_thetae_009.txt.gz
Theta_e
329 327 326 326 325 325 325 325 325 325 325 325 326 324 320 322 324 327 327 325 323 325 324 324 323 323 323 322 320 321 320 320 320
327 326 325 326 325 325 324 324 325 325 324 325 326 326 320 322 323 326 326 319 325 325 324 324 323 321 321 321 319 319 319 319 319
328 328 327 326 327 326 325 324 323 325 325 325 325 327 321 320 321 325 324 323 325 325 325 323 322 321 319 321 320 319 318 317 317
329 329 328 328 328 329 328 327 324 323 324 325 324 326 320 318 320 322 325 323 325 324 324 323 323 322 320 319 320 319 318 317 316
326 328 326 327 329 329 329 327 326 323 323 324 325 324 322 317 318 319 324 323 326 324 324 323 322 322 322 319 318 318 318 318 317
323 323 323 324 325 329 329 328 326 323 320 320 323 324 322 316 315 318 320 322 325 324 324 324 322 322 322 321 319 318 318 317 318
324 323 322 323 324 325 327 327 327 324 320 316 316 319 323 320 314 314 318 319 324 325 324 325 322 321 321 321 320 319 319 319 319
325 324 322 321 325 325 324 324 324 324 321 317 314 315 318 318 316 312 311 318 321 326 327 326 325 322 320 320 320 319 319 320 320
325 324 322 323 324 325 325 324 324 323 321 319 317 312 311 313 313 311 310 311 318 322 326 327 326 324 322 321 320 321 321 321 321
325 324 324 323 324 324 325 324 323 322 320 320 319 318 310 309 310 312 314 312 310 317 323 327 327 326 325 324 323 322 322 322 322
324 325 325 325 324 324 325 324 323 322 322 321 320 320 318 315 312 313 313 313 313 310 316 322 325 326 327 327 326 326 324 323 323
326 326 326 326 326 325 324 324 323 322 322 322 321 320 320 319 318 317 316 315 313 312 313 318 320 322 323 325 326 327 327 327 326
326 326 326 326 326 325 324 324 323 323 322 321 321 320 320 320 320 319 317 316 317 317 314 311 311 316 319 319 321 323 325 326 326
326 326 325 325 325 325 324 324 323 322 321 320 320 320 320 321 321 321 321 320 319 318 318 318 318 314 313 316 317 318 319 321 324
326 325 325 325 325 324 324 324 323 323 322 320 320 320 320 320 321 321 320 320 320 321 321 319 317 318 318 315 317 317 318 319 320
329 328 328 327 326 326 325 324 322 322 321 319 321 321 321 321 321 321 321 321 321 319 319 318 318 317 317 318 318 318 319 319 320
331 331 330 329 327 327 326 325 323 322 322 322 322 324 324 324 324 323 322 323 323 321 320 319 318 318 317 317 317 318 318 321 321
322 323 324 326 327 327 326 326 324 323 324 324 322 325 325 320 324 324 323 322 322 322 323 323 321 320 319 319 319 318 318 318 320
313 313 313 314 319 326 327 327 325 324 324 325 325 323 325 327 328 326 324 323 321 322 322 322 323 323 322 321 321 321 320 320 319
309 308 307 307 308 309 311 317 324 325 326 326 327 327 324 323 324 326 325 325 324 324 322 322 322 322 322 322 323 323 322 321 320

GFSFLT1_925_thetae_015.txt.gz
Theta_e
328 328 326 325 324 326 326 325 327 326 326 327 327 326 326 323 319 321 325 326 325 328 327 327 328 328 328 327 324 322 323 322 322
329 328 326 326 326 326 325 325 324 326 326 326 326 326 324 325 322 320 324 326 326 328 326 326 325 325 324 324 323 322 322 321 321
332 329 328 328 327 327 326 327 326 325 324 325 325 325 324 325 325 320 320 323 326 326 327 326 326 325 324 322 323 322 321 321 321
329 329 330 330 329 326 326 327 327 328 327 326 325 324 324 324 326 323 319 321 324 327 328 328 327 326 325 324 322 323 322 321 320
327 328 328 329 329 328 327 327 327 327 326 326 326 324 322 324 324 324 322 319 320 327 328 328 327 326 325 325 324 322 323 322 321
326 323 322 323 323 326 328 327 329 326 325 325 324 323 321 321 321 323 321 319 320 323 326 327 328 327 327 325 325 324 322 323 322
326 326 325 325 323 322 321 323 325 325 327 326 324 323 321 320 319 318 314 318 323 322 323 326 327 328 327 327 325 325 325 323 322
326 325 325 324 324 323 322 322 323 324 325 325 324 322 321 319 318 316 313 311 320 323 322 323 325 326 327 327 327 325 325 325 324
325 326 325 325 324 323 323 323 322 323 323 324 324 323 322 321 320 319 317 315 310 317 321 322 321 324 326 327 327 327 325 324 324
324 324 323 324 324 324 324 324 325 324 324 324 324 323 323 322 321 321 321 319 318 315 316 318 320 320 322 325 328 328 328 326 324
326 325 324 324 324 325 325 325 324 324 324 323 323 323 323 323 323 322 322 322 321 320 319 319 319 321 321 322 325 326 328 328 327
327 326 325 325 325 325 325 324 324 323 323 322 322 323 322 323 324 323 323 323 323 323 321 322 323 322 321 322 321 323 325 329 329
327 326 326 325 324 324 324 323 323 323 323 323 324 323 322 324 325 325 325 325 326 325 326 326 324 324 324 323 323 321 322 322 326
326 325 326 325 325 325 324 323 322 322 323 322 322 322 322 322 322 321 321 323 324 323 323 324 324 323 323 324 325 324 323 323 323
328 327 327 326 326 324 323 322 323 322 323 322 322 323 324 323 322 322 321 321 321 321 321 321 319 321 322 321 323 325 325 325 324
315 314 313 313 317 319 320 320 321 322 323 321 321 322 322 324 324 324 323 322 323 322 321 320 320 320 321 322 322 322 324 325 325
307 306 306 306 308 309 311 314 315 317 318 321 322 324 322 322 323 323 324 323 323 323 322 322 321 320 320 320 323 323 322 323 324
305 304 304 304 304 306 307 308 309 310 310 312 317 319 321 319 316 319 320 322 323 322 322 322 322 321 320 320 321 323 323 323 323
303 302 301 301 302 304 305 305 306 306 307 308 309 310 312 313 315 311 313 314 317 319 318 320 320 320 321 321 321 322 322 322 322
299 298 297 298 299 300 301 302 303 304 305 306 306 307 308 309 312 314 311 311 311 312 314 315 317 319 320 320 320 320 321 321 322

GFSFLT1_925_thetae_018.txt.gz
Theta_e
330 327 326 324 324 326 326 325 326 327 327 327 328 328 327 326 325 322 322 326 327 327 329 328 327 330 330 329 328 326 324 324 323
332 329 327 326 327 327 326 326 326 325 326 327 327 327 326 323 325 324 321 324 328 329 329 328 327 327 327 326 326 325 323 323 322
332 331 328 328 328 327 326 326 327 327 326 326 325 324 324 323 324 325 323 321 324 328 329 328 328 327 326 325 324 325 323 323 322
328 329 330 330 327 328 328 328 328 327 326 327 326 325 324 323 323 324 324 321 321 326 329 328 330 329 327 326 326 324 325 323 322
327 327 328 328 326 326 323 325 329 329 328 326 325 324 323 323 322 323 323 323 323 323 326 328 329 329 329 327 327 326 324 325 323
329 327 324 322 322 321 322 322 325 326 326 325 325 325 324 322 321 320 320 323 324 324 324 326 328 328 330 328 327 327 326 324 325
329 328 326 325 324 323 322 321 321 323 327 327 327 327 325 324 322 320 319 320 322 323 324 324 326 328 329 329 329 328 327 326 325
328 328 328 327 327 326 326 326 326 326 327 327 327 327 326 325 324 323 320 320 322 321 322 325 324 325 327 328 328 329 328 327 326
327 327 327 327 327 327 327 327 327 327 327 327 327 327 327 326 326 325 323 321 321 322 322 321 324 324 324 326 327 327 328 328 326
328 328 328 327 327 327 328 328 328 328 328 328 328 328 328 327 327 327 325 323 323 323 323 324 322 321 323 323 324 326 328 329 329
330 329 329 329 328 328 328 328 328 328 328 329 329 328 328 328 327 327 327 326 324 326 325 325 326 325 323 322 323 323 325 328 330
330 330 330 329 329 328 328 329 328 329 329 329 328 328 328 327 327 327 327 327 326 324 324 326 327 327 327 326 324 324 324 324 327
329 329 329 329 328 328 328 329 329 329 328 328 328 327 326 326 327 327 326 326 326 325 324 323 323 326 328 329 329 327 325 325 325
328 328 329 328 328 328 327 326 326 326 326 325 324 324 324 326 327 327 326 325 325 325 324 323 322 321 321 325 328 329 329 328 326
326 323 321 321 321 320 320 320 320 321 321 321 321 321 321 322 323 325 325 326 326 325 325 325 324 323 322 321 322 325 327 328 328
312 312 311 311 312 312 311 312 312 312 314 312 314 315 316 321 319 323 324 321 322 323 325 323 325 325 324 322 321 322 324 326 327
308 308 308 308 309 309 309 309 309 309 309 310 311 314 313 313 314 311 311 314 314 318 321 322 322 323 323 324 323 322 322 324 325
306 306 306 306 306 306 306 306 306 306 306 307 308 312 313 312 308 309 309 311 312 311 312 315 316 316 317 319 320 321 321 320 322
301 301 302 302 302 302 302 301 302 302 303 303 304 305 306 308 309 307 307 308 309 309 309 310 310 311 312 315 318 319 320 320 320
298 298 298 298 298 298 298 298 298 300 300 300 302 303 304 304 307 309 305 303 303 304 305 306 308 310 310 311 312 316 315 317 318

GFSFLT1_925_thetae_021.txt.gz
Theta_e
333 329 325 326 325 327 326 326 324 325 328 328 327 328 328 327 325 326 323 322 326 329 328 330 329 328 331 331 330 329 328 325 325
334 331 328 328 327 328 328 327 327 327 326 326 326 327 326 325 324 324 326 322 324 328 330 329 329 329 328 328 328 327 327 324 324
333 332 330 329 327 327 327 326 327 328 327 327 327 325 323 323 324 324 325 325 323 325 328 330 328 329 328 327 327 326 326 325 324
328 328 328 329 329 327 325 327 331 331 331 330 328 326 325 324 324 323 324 324 325 324 325 328 329 330 331 328 327 327 326 326 325
327 327 327 328 326 323 324 322 326 330 330 330 328 326 325 325 324 324 324 324 324 325 325 326 327 329 329 331 330 328 327 326 326
330 329 327 324 323 323 322 323 322 322 323 324 326 326 327 326 325 322 321 321 324 325 325 325 326 328 329 329 331 330 328 327 326
329 328 326 325 323 324 323 324 324 324 327 329 328 328 329 327 326 326 324 321 322 323 325 325 326 326 328 329 329 331 331 329 328
328 329 329 329 328 328 328 328 329 328 328 328 328 328 328 328 328 327 326 324 324 324 325 325 324 326 326 326 328 329 329 331 329
328 328 328 328 328 328 329 329 329 329 329 329 329 329 329 328 328 328 328 327 325 326 327 328 326 324 325 326 326 327 328 329 330
329 329 329 329 329 329 329 330 330 330 331 331 330 330 330 330 330 330 329 329 328 327 327 328 329 328 326 325 325 326 326 328 329
332 332 331 331 331 331 331 330 331 331 331 330 330 330 330 329 329 329 329 328 328 328 327 328 329 331 330 329 326 325 326 326 327
332 332 332 332 332 331 330 330 330 330 329 329 328 329 328 327 327 327 327 328 329 328 328 327 328 328 330 331 331 329 327 326 326
331 331 331 331 330 330 329 328 327 327 326 325 325 325 324 324 324 325 326 327 327 327 327 326 326 326 327 328 330 331 330 330 328
331 329 327 324 325 324 322 320 320 320 319 319 319 319 320 320 320 321 323 324 326 326 326 325 325 325 325 325 326 327 329 329 329
318 316 314 314 315 314 313 312 313 312 313 313 313 313 314 315 315 320 321 323 322 317 320 323 325 325 325 325 325 326 326 327 327
311 311 311 311 311 311 310 310 311 311 310 310 311 311 310 312 312 311 309 310 311 313 313 314 318 321 322 322 321 324 325 326 326
308 308 308 308 308 308 307 307 306 306 306 307 307 310 309 310 307 306 307 308 309 311 310 311 313 313 313 312 314 317 319 320 322
303 303 303 303 303 303 302 302 302 303 303 303 304 307 306 307 305 305 306 306 305 307 306 305 306 307 308 309 309 311 314 317 318
300 300 299 300 299 299 299 299 299 299 301 301 300 301 303 305 306 304 303 302 302 301 302 302 302 304 307 309 310 311 311 313 315
298 297 297 297 297 296 296 297 297 298 300 299 299 300 301 302 302 301 301 299 299 299 300 302 301 302 303 307 308 307 307 308 309

GFSFLT1_925_thetae_027.txt.gz
Theta_e
331 329 327 328 326 324 323 321 320 318 317 317 325 328 327 326 325 324 322 323 323 323 328 329 330 330 329 331 333 333 332 331 329
333 329 330 329 327 325 326 326 326 327 327 327 327 327 324 322 321 321 321 322 325 326 325 329 330 330 329 329 329 330 331 329 328
335 333 330 328 326 327 328 328 329 331 331 331 331 329 327 326 324 322 320 322 324 327 327 326 328 329 331 331 330 329 328 329 328
330 330 327 326 328 328 329 328 328 329 331 331 331 330 329 327 325 324 323 321 322 326 328 328 327 327 328 331 330 330 329 329 328
327 325 325 326 326 324 321 321 322 323 321 321 322 322 324 326 326 326 324 324 324 327 327 327 328 327 327 329 330 329 332 332 330
327 329 329 328 325 322 321 322 323 325 326 326 326 327 328 328 327 328 327 326 325 328 325 325 327 328 328 327 328 329 330 331 333
329 330 328 327 327 327 327 327 328 328 328 328 328 328 328 328 328 328 328 327 328 329 328 326 326 327 328 329 328 328 328 329 330
327 328 328 327 328 328 328 328 328 328 329 329 329 329 329 329 329 328 328 328 329 330 330 329 328 328 330 330 330 330 328 328 328
328 327 327 328 328 328 329 329 329 329 329 330 330 330 330 330 329 329 329 329 329 330 330 330 330 331 331 331 332 332 331 328 328
330 330 330 330 330 330 330 330 329 329 330 330 329 327 326 325 326 326 326 325 325 325 328 329 329 331 332 332 330 330 330 332 330
332 331 331 331 330 330 329 328 327 325 323 322 322 321 322 321 319 318 320 320 320 321 323 327 329 328 328 330 329 328 328 329 330
332 330 328 327 326 325 324 319 318 318 316 315 313 313 313 316 315 312 313 315 316 315 316 316 323 326 327 328 328 327 326 327 327
328 324 319 316 315 316 315 312 311 311 310 309 309 309 309 308 307 309 310 309 307 306 306 308 310 312 317 319 322 324 324 325 325
320 316 312 312 312 311 310 309 307 305 304 303 302 303 301 303 307 307 304 302 301 302 306 305 307 308 308 310 312 314 315 316 317
312 310 309 308 308 307 305 302 301 300 300 299 302 299 303 304 304 300 298 302 299 303 301 299 300 302 301 303 305 306 307 308 309
307 305 304 302 302 301 299 299 298 298 298 301 299 299 302 300 300 296 302 298 302 301 298 300 300 297 296 297 300 304 305 306 308
302 301 300 299 299 298 297 297 296 297 298 299 299 299 300 300 295 299 297 300 299 296 298 294 295 296 296 299 300 300 301 301 305
299 298 297 297 296 295 295 295 295 296 296 296 298 297 298 296 299 296 299 298 295 296 294 295 296 296 298 297 297 298 299 302 304
297 296 295 295 294 293 293 293 294 293 295 294 297 296 295 296 296 297 294 295 295 294 294 294 295 297 295 295 293 295 298 298 300
295 294 294 293 293 293 292 292 292 292 294 293 293 294 293 294 293 292 292 293 293 293 293 293 295 294 293 292 292 294 295 295 296

GFSFLT1_925_thetae_033.txt.gz
Theta_e
331 330 327 327 325 323 323 322 320 319 319 319 324 326 326 324 321 319 319 318 318 326 328 327 330 330 330 330 331 333 334 334 333
330 331 328 328 325 323 324 324 326 327 327 328 329 329 326 325 325 325 324 322 320 325 329 329 328 330 331 330 329 330 329 331 333
334 331 329 328 325 325 327 328 328 329 329 329 330 330 329 329 327 327 326 325 323 326 327 329 330 328 328 327 329 330 331 331 330
333 333 331 326 324 326 326 325 327 328 328 328 325 323 323 324 325 326 327 327 325 329 330 330 330 330 330 329 328 328 328 330 330
331 330 327 325 326 327 324 322 321 323 324 325 326 326 326 326 327 327 327 327 327 330 332 332 332 330 330 330 331 330 329 328 331
326 327 327 327 327 326 326 326 326 327 327 327 327 327 327 327 327 327 328 328 328 331 332 332 333 332 329 327 328 331 331 330 330
324 326 328 328 327 327 327 327 327 327 328 328 328 328 329 328 328 327 327 327 331 333 334 332 332 332 332 330 329 330 331 331 331
327 327 327 327 327 327 327 327 328 328 328 328 328 329 327 326 325 323 321 321 326 327 328 328 328 328 330 331 331 332 332 332 332
327 327 327 327 327 328 328 328 328 327 327 326 324 321 320 320 318 318 316 315 317 320 321 324 324 326 327 330 330 330 330 331 330
326 327 329 330 329 329 328 327 324 322 321 317 317 316 314 312 311 310 310 310 310 313 316 317 319 320 322 324 325 326 327 327 328
330 330 329 326 325 323 322 320 317 314 313 311 309 307 306 305 304 305 306 305 304 305 312 313 315 315 315 316 317 318 319 319 320
329 324 321 319 318 316 314 312 308 307 305 304 302 301 301 300 301 304 301 302 300 301 305 307 307 307 308 309 311 312 312 311 312
328 324 320 314 313 310 308 306 303 301 300 299 299 299 298 299 304 299 298 300 297 299 299 299 298 300 302 304 305 306 308 309 310
323 316 312 308 306 304 302 300 298 297 297 296 297 297 297 303 300 298 298 297 297 298 297 296 295 295 298 300 302 304 306 306 307
314 307 304 303 302 301 298 296 295 296 294 294 295 297 298 301 299 295 296 296 297 295 295 293 293 292 295 297 299 302 301 301 303
305 303 302 301 300 296 295 294 294 294 293 294 295 297 298 298 298 294 295 295 295 293 292 291 291 291 292 293 297 298 298 299 300
303 301 300 298 295 294 293 293 292 292 293 295 295 294 294 297 297 294 293 294 293 292 290 290 290 291 292 290 295 294 295 296 297
300 299 297 295 293 293 292 292 291 292 292 293 292 290 292 292 293 294 294 293 291 290 290 290 290 291 291 290 292 292 293 294 296
297 296 294 293 292 292 291 291 290 290 290 291 291 291 293 290 290 292 291 290 288 289 289 289 290 289 289 291 290 291 292 293 294
295 293 292 291 291 291 290 290 290 289 289 289 289 289 289 290 289 289 288 287 287 288 289 289 288 289 289 289 290 290 291 292 293

GFSFLT1_925_thetae_036.txt.gz
Theta_e
331 330 327 327 323 322 322 319 318 317 317 317 319 324 323 321 321 322 322 321 319 323 328 328 328 329 330 330 330 330 332 333 333
331 332 328 328 323 322 323 321 324 325 327 328 329 329 328 328 327 326 326 325 323 327 327 329 328 329 328 329 328 328 329 330 330
333 332 329 329 326 325 326 328 328 328 329 329 329 329 328 327 326 326 326 326 325 329 330 328 329 330 329 328 327 328 331 331 332
333 332 331 329 327 328 329 329 329 329 329 329 326 324 323 323 325 326 326 326 326 332 333 332 332 331 331 331 331 330 329 328 329
333 331 329 327 327 328 329 326 325 325 326 326 327 327 327 327 327 327 327 327 327 330 333 334 334 333 333 331 331 331 331 331 330
327 328 328 327 327 327 328 327 327 327 327 327 328 328 328 328 328 327 327 327 330 332 331 331 332 333 332 332 331 330 331 332 333
322 324 326 327 327 327 327 327 327 327 327 328 328 328 328 327 326 325 323 323 327 329 329 329 329 330 330 331 331 330 331 332 332
327 327 327 327 327 327 327 327 328 328 327 327 326 326 324 323 322 320 319 317 321 322 322 324 325 325 326 328 330 331 331 331 332
329 327 326 326 327 328 328 328 327 326 322 320 318 317 316 314 312 311 312 312 312 316 318 319 320 322 323 325 325 325 327 327 327
327 326 327 329 329 327 325 324 322 321 317 313 311 309 307 306 305 305 306 306 307 311 315 316 318 316 317 317 317 318 319 320 320
329 330 328 326 322 320 321 317 313 311 307 305 302 301 301 300 300 303 302 302 301 307 310 310 310 309 310 312 312 312 313 313 314
329 326 322 318 315 313 312 309 305 303 302 301 300 299 298 298 302 299 301 300 299 300 303 304 303 304 305 307 307 308 309 311 312
322 322 316 313 311 307 304 302 300 299 298 298 298 297 297 300 299 298 298 298 297 297 297 297 297 298 301 302 304 305 307 308 308
320 322 314 307 304 303 301 299 297 297 297 297 297 297 297 301 296 296 296 296 295 295 294 292 292 293 297 299 300 303 305 304 304
319 313 305 303 302 301 298 296 295 294 293 295 295 297 297 301 298 297 295 295 294 294 292 291 290 290 293 296 296 299 301 301 301
306 304 302 300 300 297 295 294 293 293 292 293 294 296 295 297 297 296 293 294 293 292 291 290 289 289 290 292 293 296 297 298 299
303 302 300 298 296 294 293 292 292 292 291 293 292 291 293 294 294 293 294 293 293 292 290 288 288 289 290 289 291 293 294 295 297
301 299 297 295 294 292 291 291 291 291 290 292 291 288 289 291 291 292 291 292 290 289 287 287 288 288 288 288 289 291 292 293 295
298 296 294 293 292 291 290 290 290 290 289 290 289 289 290 289 288 290 290 289 287 286 286 288 287 287 288 288 289 290 291 293 294
295 293 292 291 291 290 290 290 289 289 288 288 288 288 288 289 288 287 287 286 286 286 286 286 287 287 287 288 287 289 290 291 292

GFSFLT1_925_thetae_039.txt.gz
Theta_e
331 328 326 326 321 321 321 319 319 318 317 319 322 325 324 325 325 325 325 325 322 324 326 329 329 329 330 331 331 331 331 333 333
331 330 328 328 323 323 323 323 325 325 328 329 329 329 329 330 329 327 326 326 326 330 329 328 330 330 330 330 332 328 329 330 331
332 331 329 329 325 325 327 329 329 329 329 329 328 327 326 327 327 325 326 326 326 332 332 332 330 330 331 329 328 328 329 331 332
334 332 330 329 326 327 328 329 328 328 329 328 327 326 326 327 327 327 327 327 327 331 333 334 334 333 332 332 332 332 331 331 330
334 331 330 327 328 328 329 328 328 327 327 327 327 327 327 327 328 327 327 327 328 331 333 333 332 333 333 333 332 332 332 332 332
330 328 327 327 327 327 328 328 328 327 327 327 327 327 328 328 327 327 325 325 329 331 331 330 331 331 331 331 331 331 331 333 333
324 325 326 327 327 327 327 327 327 327 327 327 327 327 327 326 324 323 322 321 324 325 324 325 326 327 328 328 330 332 332 330 331
324 326 326 327 327 326 326 327 327 327 326 324 321 318 319 319 317 316 315 316 318 319 321 321 322 323 325 327 326 326 328 328 329
328 327 326 326 326 327 327 327 325 323 321 319 315 315 313 311 310 308 309 310 311 315 318 319 321 319 319 319 319 320 321 322 321
328 326 326 328 328 325 323 322 320 316 312 310 306 304 303 302 302 303 303 304 309 313 315 314 314 313 313 314 315 314 315 316 316
327 328 328 327 322 320 319 317 313 310 306 302 301 300 300 299 301 301 302 301 304 309 309 308 308 308 308 310 310 311 311 312 314
329 329 325 320 318 315 312 309 304 302 301 300 299 298 297 298 299 299 300 299 298 302 302 302 302 303 304 305 306 307 308 309 310
328 322 318 318 314 308 303 302 300 299 298 298 297 296 297 299 298 298 298 297 296 295 294 293 293 297 299 301 303 304 305 306 307
321 317 312 310 304 303 301 300 298 296 296 297 296 296 297 297 296 295 296 295 294 294 293 291 291 290 295 297 300 300 301 303 303
317 311 305 303 303 301 299 296 295 294 294 295 295 296 297 299 296 296 293 294 294 293 292 291 290 290 290 294 296 296 298 300 301
311 303 302 303 302 298 296 295 293 293 292 294 296 295 294 297 298 295 293 293 293 292 290 289 289 290 289 290 292 294 295 298 298
303 303 302 300 298 295 294 293 292 291 292 293 293 296 295 294 294 293 292 291 291 290 289 288 288 289 289 289 291 291 293 295 296
302 301 300 297 295 293 292 291 291 292 291 291 293 295 294 293 292 292 291 291 289 289 288 287 288 288 288 288 289 290 291 293 295
299 298 296 294 293 291 291 290 290 290 291 290 289 289 291 292 292 291 291 289 288 287 287 287 287 287 287 288 288 289 290 292 294
296 295 294 292 291 291 290 290 290 289 289 289 289 289 289 289 290 290 290 288 288 287 286 286 287 287 287 287 287 288 289 291 292

GFSFLT1_925_thetae_042.txt.gz
Theta_e
331 328 327 323 321 324 322 320 319 318 319 323 326 326 327 328 329 330 329 328 325 328 328 327 330 330 329 331 331 332 331 332 334
330 329 328 326 322 323 324 325 326 326 328 329 328 329 328 330 331 331 331 331 326 332 332 331 329 330 331 332 331 333 329 330 330
333 331 329 327 325 326 327 329 330 330 329 329 327 325 324 329 330 331 331 330 327 331 333 333 334 332 331 332 331 329 329 330 332
334 332 330 326 326 327 328 329 329 328 329 328 327 327 327 330 331 330 330 329 328 331 334 334 335 335 335 333 333 333 333 333 332
333 331 330 327 328 328 329 329 329 328 327 327 327 328 329 331 330 330 329 327 331 333 333 332 332 333 332 332 333 333 333 333 334
334 332 327 327 327 327 327 328 327 327 328 327 327 327 329 329 329 329 326 324 327 328 327 327 328 329 330 330 331 332 331 331 332
329 328 327 327 327 327 327 327 327 328 329 329 327 326 326 325 324 322 321 320 323 323 323 323 324 325 327 329 327 328 329 331 331
326 328 327 329 327 329 328 329 329 325 321 320 319 319 319 318 317 316 314 313 318 320 320 321 323 322 322 322 322 322 324 324 324
329 329 328 329 329 330 330 324 322 320 314 313 314 313 312 311 310 310 306 307 313 318 319 319 317 316 316 317 317 316 317 318 318
330 328 329 329 328 324 320 322 319 313 311 308 307 306 306 304 307 305 303 304 311 315 314 312 312 312 312 313 312 312 313 314 315
329 328 328 328 325 322 316 313 310 308 306 304 303 304 302 303 303 304 305 303 309 309 308 307 306 306 307 308 309 309 310 311 312
327 328 327 324 319 311 309 308 305 304 303 303 302 302 301 303 301 302 302 301 300 300 301 299 299 300 301 303 304 306 306 307 308
328 327 321 315 310 309 305 304 304 302 301 301 301 300 300 301 301 301 300 299 299 297 294 293 292 293 297 299 302 303 303 303 305
327 321 316 306 305 304 302 301 301 300 300 300 300 300 301 300 299 300 298 297 297 297 295 293 292 292 295 297 299 300 300 301 302
325 316 311 303 302 301 300 299 298 298 298 299 299 300 301 299 299 299 297 296 296 295 294 293 293 292 293 294 296 297 299 299 300
318 309 303 301 300 299 298 298 298 297 297 299 300 300 298 301 300 298 297 296 295 294 293 292 292 292 292 292 293 294 295 297 298
314 302 301 300 298 297 297 297 297 296 296 297 298 301 300 299 299 296 296 295 294 293 292 291 291 291 291 291 292 292 293 295 296
304 300 299 298 297 296 296 296 296 297 295 294 296 299 300 296 296 296 294 294 293 292 291 291 290 290 290 290 291 291 291 292 295
299 298 297 296 296 295 294 294 294 295 295 294 293 293 293 295 296 295 294 293 292 291 291 290 290 290 290 290 290 290 290 291 293
296 296 295 295 294 294 293 293 293 293 293 293 293 292 292 292 293 294 294 292 292 291 290 290 289 289 289 289 289 289 289 290 291

GFSFLT1_925_thetae_045.txt.gz
Theta_e
330 329 326 322 324 323 321 322 322 321 320 324 328 328 326 330 331 330 330 331 328 331 331 330 328 330 331 330 331 332 333 332 332
332 328 328 322 326 327 327 326 325 324 328 329 330 329 327 329 331 331 331 332 327 331 333 333 334 333 332 332 334 332 333 332 331
334 331 329 324 325 326 328 330 330 328 327 327 326 324 323 330 330 331 331 332 328 333 334 335 336 336 336 334 333 333 331 331 331
335 332 330 325 326 326 327 327 327 327 328 328 327 327 327 330 331 331 331 330 331 334 334 334 333 334 334 334 334 334 334 334 334
334 332 330 326 328 327 329 329 328 327 327 327 328 328 330 330 330 330 330 327 329 330 330 329 330 331 331 331 332 332 331 332 333
333 333 329 326 327 327 327 327 327 327 329 328 327 328 329 328 328 328 327 324 326 326 325 325 326 327 328 330 329 329 331 331 331
333 331 326 327 326 327 327 327 328 329 330 329 326 325 324 324 323 321 320 318 321 322 322 322 325 325 324 324 324 324 325 326 325
327 328 327 328 327 330 330 330 329 324 323 322 322 321 320 320 319 317 314 311 315 318 320 322 321 319 319 320 319 318 319 319 320
328 329 329 330 329 330 330 325 321 319 317 317 315 315 314 312 310 311 308 306 316 318 319 316 315 315 315 315 315 314 315 316 317
330 329 329 329 329 327 324 320 318 317 315 313 310 308 308 306 307 307 307 307 315 315 313 312 311 310 310 311 311 311 312 312 313
331 331 329 326 328 325 319 318 315 313 310 308 306 306 306 304 305 305 306 305 309 309 308 306 305 304 305 305 306 307 308 308 309
331 327 326 323 319 317 315 312 310 308 306 306 305 304 303 303 303 304 304 303 301 301 299 297 297 297 301 302 304 305 306 306 306
327 323 321 317 316 313 310 308 307 305 304 303 303 303 302 303 302 303 302 301 301 300 298 295 294 294 296 300 302 303 304 303 304
323 320 320 313 311 309 306 305 303 303 302 301 301 302 303 302 301 302 300 299 299 299 297 295 294 294 295 298 299 300 301 302 302
321 321 312 309 307 305 304 303 301 300 300 301 301 302 302 301 301 301 299 299 297 297 296 295 294 294 294 295 296 298 299 299 300
318 314 308 306 305 304 303 301 301 300 299 301 301 302 300 302 301 301 299 299 297 296 295 294 293 293 293 294 294 295 296 297 298
311 311 306 303 302 301 300 301 300 299 297 298 301 305 302 301 302 300 298 297 296 295 294 293 293 292 292 292 293 293 294 295 296
311 306 303 301 301 300 299 299 299 299 298 296 298 302 304 298 298 298 297 296 296 294 293 293 292 292 291 291 291 292 292 293 295
304 302 301 300 299 299 297 297 297 297 297 297 295 295 295 297 297 297 296 296 294 294 293 293 292 291 291 291 291 291 291 292 293
300 300 299 298 298 296 296 296 295 295 296 295 295 294 294 294 295 296 296 294 294 293 293 292 292 291 291 290 290 290 290 291 292

GFSFLT1_925_thetae_048.txt.gz
Theta_e
330 325 319 321 323 324 326 327 326 325 324 323 325 325 324 330 330 330 331 331 328 331 333 333 332 330 331 332 331 331 332 333 332
331 328 322 324 326 326 325 323 321 320 326 330 329 327 325 330 330 331 331 332 328 334 333 333 336 336 335 334 333 334 332 332 332
333 330 325 324 326 328 328 327 326 324 325 325 324 323 325 331 331 330 331 331 332 335 333 333 334 334 335 334 334 334 334 334 333
334 331 327 324 325 325 324 325 324 325 326 326 326 327 328 331 330 330 329 328 330 332 331 330 331 332 332 332 334 334 334 333 334
335 331 328 325 325 325 327 326 326 326 327 327 327 327 330 328 329 328 327 326 329 328 327 328 328 328 330 331 330 331 332 332 332
334 331 328 324 325 326 326 326 327 327 329 328 326 328 327 326 326 325 324 322 324 324 324 324 327 328 326 326 326 326 327 326 326
333 333 328 325 326 326 326 327 329 329 329 326 325 323 322 321 321 320 319 318 321 322 322 325 323 322 322 321 320 320 320 321 321
333 327 325 326 325 328 329 330 326 326 323 321 320 319 318 318 314 315 314 310 316 320 323 319 319 318 318 317 317 316 317 317 318
326 328 328 329 329 330 327 325 325 323 317 315 314 313 312 310 308 309 308 306 313 320 318 316 314 314 314 314 313 313 313 314 314
327 329 329 329 329 329 327 323 320 317 315 312 309 307 307 307 306 307 306 307 316 315 313 311 309 309 308 308 308 309 309 310 310
330 329 329 329 329 326 322 318 316 313 311 308 306 305 305 304 305 304 306 305 308 309 307 306 305 305 305 305 306 306 307 308 307
330 330 330 327 327 321 317 316 311 309 307 305 304 304 303 302 304 304 304 303 302 301 299 297 298 298 301 303 304 305 305 305 305
331 329 326 321 316 315 313 309 308 306 304 303 302 302 302 302 302 303 302 301 300 300 299 298 296 297 298 301 302 303 303 304 304
330 326 324 317 314 312 310 307 305 303 302 301 301 301 302 303 301 302 301 300 299 299 297 296 295 295 296 298 299 301 302 302 302
327 323 319 314 312 309 305 304 302 301 300 300 301 302 302 302 301 301 300 299 299 297 296 295 294 294 295 296 297 298 299 300 301
323 320 313 312 308 305 303 302 301 300 298 300 301 302 301 302 301 301 300 299 298 296 295 294 293 293 293 293 294 296 296 298 299
319 314 311 308 306 303 301 302 300 299 297 297 299 299 300 300 300 301 299 298 296 296 295 294 293 292 292 291 293 294 294 295 297
313 310 309 306 304 301 301 300 300 299 297 296 298 297 298 295 298 300 298 297 296 295 294 294 293 292 292 291 291 291 293 294 295
310 308 305 303 302 301 299 298 297 298 297 296 295 295 295 293 292 296 296 296 294 294 294 293 293 292 292 291 291 291 292 293 294
306 304 302 301 300 298 297 296 296 296 296 295 295 294 294 294 292 291 293 294 293 293 293 293 292 292 291 291 290 290 291 292 293

GFSFLT1_925_thetae_051.txt.gz
Theta_e
329 326 326 326 325 329 329 329 328 327 325 323 319 318 330 330 328 329 331 331 330 333 332 332 334 333 331 331 332 333 332 333 333
328 322 324 325 326 328 328 329 325 325 327 323 324 323 328 330 329 330 331 331 331 334 332 332 335 335 335 335 333 333 334 332 333
330 324 322 325 328 329 328 327 324 322 324 322 322 323 327 331 330 330 329 330 333 334 332 333 333 333 333 334 334 334 334 335 335
331 328 324 325 324 323 322 322 322 324 325 325 326 327 330 330 329 329 328 328 331 331 330 330 330 330 332 332 332 333 333 333 333
331 330 324 324 323 323 323 324 325 326 327 326 326 329 329 328 328 327 326 326 328 327 327 327 330 330 329 329 329 329 329 328 328
334 330 324 324 324 325 325 325 326 328 328 326 326 325 323 326 324 324 322 321 324 324 324 327 326 325 325 324 323 322 323 323 323
334 331 326 324 324 325 326 327 328 327 328 324 324 321 319 319 320 320 318 316 319 322 325 323 321 321 321 320 319 318 319 319 320
332 332 329 325 325 327 328 329 327 323 323 320 317 317 316 316 314 312 312 310 320 324 321 319 318 317 317 316 315 315 315 316 316
333 328 324 326 326 329 329 328 325 322 317 316 316 314 312 311 308 308 308 307 318 320 317 315 313 312 311 311 311 311 311 312 311
330 327 328 329 328 329 326 324 323 318 315 312 309 306 306 306 305 306 306 307 316 315 312 310 309 309 308 308 308 308 309 310 309
325 327 329 329 329 327 324 323 319 316 314 310 306 305 305 303 304 304 305 305 307 309 308 306 305 305 305 306 307 307 307 307 307
327 329 328 328 325 325 321 317 315 313 309 306 304 303 303 302 303 303 304 303 302 300 300 300 301 301 302 303 305 305 306 306 306
329 329 329 327 326 321 317 314 311 308 306 303 302 302 302 302 302 303 303 302 301 300 299 298 298 298 300 301 302 303 304 304 304
330 329 329 325 319 316 314 310 308 305 303 301 301 301 301 303 302 302 302 301 300 299 298 297 295 295 297 299 300 301 301 302 302
331 329 325 320 317 314 312 308 304 302 301 301 301 302 301 302 301 301 301 299 299 298 297 295 295 294 294 296 297 298 300 300 301
332 328 323 317 316 313 309 304 303 301 300 301 300 301 301 302 301 300 300 299 298 297 296 295 294 294 293 293 294 296 297 298 299
332 327 320 315 313 309 305 304 301 299 297 298 299 298 299 300 301 301 301 298 297 296 295 294 294 293 293 292 293 293 294 296 297
331 323 316 312 312 307 304 303 302 300 297 296 298 297 298 294 297 300 299 297 296 295 294 293 293 293 292 292 292 291 293 294 296
324 318 311 307 306 303 302 301 301 300 298 296 295 295 295 292 292 295 296 295 295 294 293 292 293 292 292 292 291 291 292 293 295
315 313 310 307 304 302 301 299 298 298 297 297 295 294 294 294 291 291 292 294 294 292 292 291 291 291 291 291 291 291 292 292 293

GFSFLT1_925_thetae_054.txt.gz
Theta_e
328 327 327 332 333 333 332 330 330 330 330 325 316 329 329 328 328 328 330 330 332 333 331 332 334 334 332 330 332 333 333 333 334
327 326 326 327 331 331 331 331 328 327 325 320 321 325 328 329 329 329 331 330 333 333 333 333 335 335 335 335 334 333 333 333 332
327 328 327 327 329 330 330 327 321 318 320 321 322 326 328 329 329 329 328 328 332 333 332 333 333 332 333 333 334 334 334 333 334
328 325 328 329 330 327 324 323 321 323 324 325 326 327 329 328 328 327 327 327 331 330 330 330 330 332 331 330 330 331 330 330 331
330 324 324 325 323 322 321 322 324 325 326 326 327 327 328 327 328 326 326 326 328 328 327 330 330 328 327 326 325 325 325 326 326
331 327 322 323 322 323 324 325 326 327 326 326 325 322 324 327 324 322 321 323 325 325 327 326 325 324 323 322 321 321 321 322 323
333 329 323 323 324 325 326 326 327 328 326 325 323 320 320 321 320 319 317 316 321 326 324 322 322 321 320 318 318 317 317 318 318
334 330 326 324 324 326 327 327 328 324 326 321 318 317 317 316 314 313 311 317 322 323 320 319 317 316 315 314 313 314 314 314 313
334 331 331 324 325 326 328 328 324 321 320 316 314 313 313 312 310 308 308 308 323 320 317 314 312 311 311 310 310 310 310 311 311
332 332 326 325 325 327 328 327 322 318 315 313 311 309 307 306 306 306 307 311 318 316 312 311 310 309 309 309 309 309 309 310 309
333 331 327 328 327 328 328 323 321 317 313 311 308 306 305 304 304 305 305 307 311 310 308 306 305 305 305 307 308 307 307 308 308
331 328 328 328 329 328 324 320 317 316 313 308 305 303 303 302 303 304 304 304 303 303 303 302 302 302 303 304 305 305 306 306 306
326 326 327 328 328 325 321 317 315 313 309 305 303 302 302 302 302 303 303 302 301 300 299 298 299 300 301 302 303 304 303 304 304
327 326 328 326 325 322 320 317 314 309 304 302 301 301 301 302 302 302 302 301 300 299 298 297 296 295 296 299 300 301 302 302 302
328 328 327 326 324 320 317 315 310 305 302 300 301 301 302 302 301 301 301 300 299 298 297 296 295 294 294 295 296 298 300 300 301
329 329 327 325 323 320 315 312 306 302 300 300 300 301 301 301 301 300 300 299 298 297 296 295 294 294 293 293 294 295 297 298 299
330 330 327 324 319 315 313 311 303 301 299 299 299 300 299 300 301 300 300 299 298 296 294 294 293 293 293 292 292 292 294 296 297
331 330 329 323 317 315 312 307 304 302 297 298 299 297 298 295 297 299 300 297 295 294 294 293 292 292 292 291 291 291 293 294 296
331 330 327 320 316 314 308 303 303 303 300 296 296 296 296 293 293 295 296 295 294 294 293 292 291 291 291 291 291 291 293 294 295
329 327 322 316 312 309 304 303 303 301 300 298 295 294 294 293 292 292 292 294 294 293 292 291 290 290 290 289 289 292 293 293 294

GFSFLT1_925_thetae_057.txt.gz
Theta_e
329 329 332 334 333 334 335 334 332 329 328 322 326 328 329 328 328 329 330 330 333 332 332 333 335 334 335 334 330 332 333 332 333
328 327 330 332 333 333 332 330 328 326 326 323 325 327 328 328 328 329 329 334 334 334 334 334 334 334 334 334 334 334 334 334 333
325 326 326 331 332 332 330 329 328 324 324 325 324 327 329 328 328 327 328 329 333 332 332 332 331 332 332 332 333 331 332 333 333
325 327 327 329 331 331 329 325 322 323 324 324 325 327 329 328 328 327 328 327 330 330 329 331 332 331 329 327 326 326 327 328 329
324 324 328 330 329 326 325 323 324 325 325 326 327 328 328 327 327 326 327 327 329 327 329 330 329 327 325 324 324 323 324 324 325
328 322 323 324 323 323 323 324 325 326 326 326 326 324 326 327 325 323 322 326 326 327 327 325 325 323 321 320 320 320 320 321 320
331 327 322 322 322 324 325 326 327 327 326 325 322 321 323 324 321 318 317 321 325 326 323 322 321 320 318 317 316 316 317 316 316
333 330 324 324 324 325 326 327 327 327 327 322 321 319 319 318 316 313 314 320 326 322 320 318 317 315 314 313 313 313 313 313 312
333 332 327 323 324 326 327 327 326 323 326 318 316 314 313 312 310 309 307 313 323 319 316 314 312 312 311 311 311 311 311 311 310
332 333 330 326 324 325 327 327 323 319 318 314 312 310 308 307 306 306 309 320 319 316 313 312 310 309 309 310 309 309 309 310 310
332 332 331 328 324 326 327 328 322 317 313 310 309 307 305 305 304 305 307 310 313 312 309 307 306 306 306 307 307 307 308 308 308
331 332 331 326 326 326 327 327 319 314 311 310 308 305 304 303 303 304 305 306 306 306 305 304 303 303 304 305 306 306 306 306 306
329 332 332 327 327 327 327 323 317 313 311 308 304 303 302 302 302 304 303 303 301 301 300 299 299 299 301 302 303 304 304 304 304
328 330 330 327 327 328 325 320 315 312 309 304 302 301 301 301 302 303 302 302 301 299 298 297 296 295 296 299 300 301 301 302 303
328 328 326 325 327 325 322 318 312 311 306 302 301 300 301 301 302 302 302 300 299 298 297 296 295 294 294 295 297 299 299 300 301
329 328 325 327 326 324 319 313 312 307 302 300 300 300 301 301 300 301 300 299 298 298 296 295 294 294 293 293 294 296 296 298 299
330 328 327 327 326 321 317 315 310 303 300 300 299 298 299 300 300 299 299 299 298 297 295 294 294 293 293 292 292 292 295 296 298
330 328 328 328 325 321 317 315 313 303 299 299 300 297 298 296 297 299 299 299 297 295 294 293 292 292 291 291 291 291 293 295 297
330 329 329 328 324 320 316 312 310 305 301 297 297 297 297 293 293 295 297 296 295 294 293 292 291 291 290 290 290 293 294 295 296
330 329 328 326 320 316 315 309 305 304 303 300 295 295 294 294 292 291 292 294 294 293 292 291 290 290 290 289 288 290 292 293 294

GFSFLT1_925_thetae_060.txt.gz
Theta_e
330 331 332 333 331 333 338 337 334 329 326 327 328 328 328 327 328 329 330 332 334 334 333 335 334 335 335 334 331 332 333 331 332
329 330 332 333 332 335 335 332 329 327 325 327 327 328 328 327 328 328 333 334 334 334 334 333 334 334 334 334 334 334 334 333 333
328 328 331 333 333 333 332 330 328 325 326 325 326 327 328 328 328 328 329 332 332 332 331 331 332 331 331 329 329 330 330 331 331
327 327 328 332 332 331 329 327 322 324 327 324 325 328 328 328 327 327 328 328 331 329 331 332 330 328 326 326 325 325 326 327 327
325 324 327 330 331 329 323 323 325 328 326 326 326 328 328 327 326 327 326 329 328 329 329 329 326 325 323 323 323 322 323 323 322
322 323 327 328 326 324 323 325 327 326 326 326 326 327 327 327 325 323 324 327 327 328 326 325 324 322 320 319 319 319 319 319 318
328 321 323 325 325 324 325 327 327 326 325 325 322 323 325 325 322 319 318 324 328 325 323 322 320 318 316 316 315 315 315 315 314
332 328 323 324 324 326 328 327 327 326 325 324 321 320 321 319 317 314 317 323 325 321 319 317 316 314 313 313 313 313 313 313 312
332 332 327 323 324 326 327 327 327 325 326 320 318 316 315 314 312 310 309 323 323 319 316 314 313 312 312 312 311 311 311 311 311
331 332 330 323 324 325 326 327 326 322 325 317 314 313 311 309 307 306 312 323 320 316 314 312 310 309 310 310 309 309 310 310 310
329 331 332 329 324 325 326 327 324 319 316 314 311 309 307 305 305 306 314 317 314 313 310 308 307 307 308 307 308 308 308 308 308
329 331 332 330 328 325 326 327 323 316 313 310 309 307 305 304 304 305 307 309 309 308 307 305 304 305 305 306 306 306 305 305 306
328 331 332 331 329 325 325 326 323 315 312 310 307 304 303 302 303 304 305 305 304 303 302 302 301 301 302 303 303 303 304 304 304
327 328 329 331 329 326 326 325 321 314 310 308 304 302 302 301 302 304 304 302 301 300 298 297 296 295 298 299 300 301 302 302 303
323 326 328 331 330 326 325 325 317 313 310 304 301 301 301 301 302 303 302 301 300 298 298 297 295 295 295 295 297 299 299 300 301
327 324 328 330 330 326 326 319 315 311 306 301 300 300 301 301 301 302 302 300 299 298 297 296 295 294 294 293 293 297 298 298 299
332 329 327 328 327 324 324 321 312 307 303 301 299 298 299 300 299 300 300 299 298 297 297 295 294 294 293 293 292 292 294 297 298
334 332 328 328 325 325 324 318 316 308 302 301 302 297 299 296 297 299 299 298 298 297 295 294 293 293 292 291 291 292 295 296 298
335 333 331 328 325 324 323 319 314 311 304 299 299 299 299 296 293 294 297 297 296 295 294 293 292 291 291 290 290 291 293 294 296
334 333 331 328 325 323 322 319 311 310 308 303 297 295 295 294 293 293 292 294 294 293 293 292 291 290 290 289 288 289 291 292 294

GFSFLT1_925_thetae_063.txt.gz
Theta_e
332 332 332 331 331 332 335 338 333 328 324 330 329 327 327 328 328 330 331 333 334 334 335 335 334 335 335 333 333 333 332 332 330
332 332 332 331 332 337 336 333 331 328 324 329 328 327 327 327 328 332 333 334 334 334 333 334 334 333 332 332 333 334 334 334 333
330 331 332 332 332 335 333 330 329 323 322 327 327 328 327 328 327 328 331 332 332 330 332 332 331 329 329 328 328 329 331 330 331
329 330 332 333 333 332 330 329 325 324 324 323 326 328 328 328 327 329 331 330 330 331 331 328 328 327 326 325 325 325 324 325 326
327 325 330 332 332 331 328 325 327 328 324 324 326 328 328 327 327 328 328 329 329 330 329 327 325 324 323 322 323 322 322 321 322
325 324 327 330 331 327 325 327 329 326 326 326 327 328 327 326 325 324 326 327 330 327 327 324 323 321 320 319 319 319 318 317 317
321 323 326 326 324 324 326 328 327 326 325 325 323 324 326 325 322 321 323 327 327 325 323 322 319 317 316 316 315 316 316 315 315
327 322 325 327 324 327 328 327 327 326 325 324 321 322 323 322 319 316 317 328 325 322 320 318 316 315 314 314 314 314 314 313 313
331 329 323 323 323 325 327 327 327 326 326 322 320 319 318 317 314 313 317 326 323 319 316 315 314 313 313 313 312 312 312 312 312
332 332 330 323 324 325 326 326 327 324 325 321 316 315 314 312 310 307 309 324 321 317 315 313 311 311 311 311 310 311 310 310 310
331 331 332 328 323 324 326 326 327 322 324 318 314 312 309 307 306 309 321 322 316 314 312 310 309 309 309 309 309 309 308 308 308
330 329 330 331 327 324 325 326 325 320 317 313 310 309 307 305 305 308 314 315 312 310 309 307 307 306 307 307 307 307 306 306 306
330 329 329 331 330 326 325 326 326 319 315 311 309 307 305 304 304 306 309 309 308 306 305 305 303 303 303 304 304 304 304 304 304
328 328 328 331 331 329 325 325 325 320 313 310 308 305 302 302 303 305 305 305 304 302 300 299 297 297 299 301 301 302 302 302 303
326 326 327 330 332 330 325 325 323 319 313 307 304 302 301 301 302 304 304 302 301 300 299 297 296 295 295 296 298 300 301 300 301
332 328 325 327 329 331 326 324 321 314 309 304 300 300 300 300 301 303 303 301 301 299 298 297 296 295 295 294 294 294 297 299 300
334 332 327 324 328 330 328 324 317 311 308 304 302 305 301 300 300 301 302 301 300 298 297 297 295 295 294 294 293 292 294 298 299
335 334 331 325 326 329 329 324 322 310 305 304 305 304 308 300 298 299 300 299 299 298 297 296 295 294 293 292 291 292 293 296 298
336 335 332 329 325 327 328 324 321 317 309 301 302 301 301 304 300 295 297 298 297 297 296 295 294 293 292 291 290 290 290 294 296
334 334 333 332 330 327 327 322 319 317 312 308 300 297 297 296 297 299 294 295 296 295 294 293 292 292 291 290 289 289 290 293 294

GFSFLT1_925_thetae_066.txt.gz
Theta_e
333 331 332 330 333 335 337 337 330 328 331 328 327 326 327 329 331 334 334 336 334 336 336 333 335 335 335 335 335 333 334 333 331
332 333 333 330 331 334 338 334 330 328 328 327 327 327 327 330 332 334 335 335 334 333 335 334 333 332 332 332 334 334 334 334 333
330 332 333 330 336 336 335 332 330 326 326 327 327 327 328 330 330 332 333 331 331 332 333 331 330 329 329 329 330 329 330 331 331
330 331 332 332 335 335 333 332 328 327 324 327 328 328 328 330 330 330 332 329 332 333 331 329 328 327 326 326 326 325 325 326 327
328 331 332 332 333 332 330 328 326 326 323 325 328 328 327 330 330 329 330 329 332 331 329 326 325 324 323 323 323 322 321 321 322
326 327 331 332 332 330 327 328 327 324 324 325 327 328 329 329 328 328 326 329 330 328 326 324 323 321 320 320 319 318 318 317 318
326 326 328 330 330 326 326 328 326 326 327 326 326 329 328 327 326 325 326 330 328 325 324 322 319 318 317 317 317 317 316 316 315
326 327 328 329 326 327 327 329 328 328 327 325 326 326 326 324 322 320 322 328 326 323 321 318 317 316 315 315 315 315 314 314 314
329 326 327 328 327 328 329 329 329 328 325 324 324 323 322 321 319 318 318 327 324 320 317 316 315 314 314 314 313 313 313 312 312
332 331 328 327 327 328 329 329 327 328 324 321 321 319 318 315 315 314 315 326 322 318 316 314 313 313 313 311 312 311 311 311 311
333 334 333 329 327 327 328 328 326 325 322 318 316 315 314 313 314 316 320 324 320 316 315 312 311 311 310 310 310 309 308 308 309
333 333 333 333 327 327 327 328 325 322 319 316 313 312 312 313 314 316 318 319 316 313 312 310 309 309 309 308 308 307 306 306 306
332 332 332 332 332 328 327 326 323 320 316 314 311 310 310 311 312 313 313 313 311 310 309 308 305 305 305 306 305 305 304 304 305
331 331 331 331 332 330 327 325 324 320 316 313 310 308 308 309 309 310 311 310 309 308 305 304 301 300 302 302 303 303 303 302 303
331 330 330 330 332 331 329 324 322 321 319 311 308 308 306 305 307 308 308 307 306 305 304 301 299 296 297 297 299 301 302 302 302
331 331 331 330 330 332 330 325 320 316 316 311 309 306 305 304 305 307 307 305 304 303 303 300 298 297 295 295 295 295 294 299 301
332 332 331 330 329 330 330 326 320 319 312 315 316 315 308 304 303 305 305 305 303 301 300 299 297 297 296 296 294 293 294 300 301
334 332 332 331 329 328 329 325 320 318 311 313 318 317 319 309 304 303 304 303 302 301 299 297 296 296 295 294 294 292 292 295 298
334 333 333 331 328 327 327 324 321 320 313 308 306 306 310 312 308 301 302 301 301 300 298 296 295 294 295 294 294 292 291 294 297
331 332 332 331 328 327 326 323 321 319 318 312 307 305 304 302 305 312 300 298 298 298 297 295 294 293 293 293 292 290 290 293 295

GFSFLT1_925_thetae_069.txt.gz
Theta_e
333 333 332 333 335 335 338 334 328 329 330 329 326 327 329 331 332 333 336 337 336 336 334 335 335 336 336 335 334 335 334 332 334
334 333 331 331 332 336 337 332 328 331 330 327 327 326 329 331 333 335 335 333 333 335 334 333 332 332 332 334 333 334 335 334 334
332 334 330 332 333 337 336 333 329 329 328 327 327 326 329 330 330 333 332 331 333 333 332 330 329 329 329 329 329 330 331 331 331
332 334 331 335 336 335 334 331 328 325 324 326 327 327 330 331 330 332 331 332 334 332 331 329 327 326 326 326 325 325 325 326 327
331 331 331 332 335 334 332 330 326 324 322 326 328 327 328 331 330 331 327 331 332 330 328 326 325 324 324 323 322 321 321 321 321
324 331 331 332 332 332 330 327 326 324 322 325 328 327 330 329 329 330 325 331 330 328 325 324 323 321 321 319 319 318 318 318 318
325 328 331 331 331 330 327 326 324 324 327 326 326 329 329 328 328 328 323 330 328 326 324 321 320 318 318 318 318 317 316 316 315
327 328 328 331 330 330 328 328 328 328 328 327 327 328 328 327 325 323 323 329 327 324 321 319 318 317 316 316 316 316 315 314 314
326 328 328 329 327 328 328 330 329 329 328 326 326 326 325 324 322 321 319 328 325 322 319 317 316 316 315 315 314 314 313 313 313
330 327 327 329 328 328 329 330 330 329 327 324 325 324 323 320 318 317 316 327 323 320 318 316 315 315 314 313 313 312 312 311 312
332 333 330 328 328 328 329 329 329 328 327 324 322 321 319 317 316 316 319 326 323 319 317 314 313 313 312 311 311 310 309 309 309
331 333 333 332 329 328 328 329 328 326 325 322 320 318 317 315 316 317 322 322 320 317 315 313 311 311 311 310 309 308 307 306 306
333 333 333 333 332 328 327 328 328 325 323 321 318 316 315 315 315 315 316 319 317 314 312 311 309 309 308 308 307 306 305 305 305
333 333 332 332 332 331 328 328 327 324 322 320 317 314 314 314 314 313 313 314 313 311 310 308 306 305 306 305 304 304 303 303 303
333 332 332 332 332 331 331 328 327 325 323 320 316 313 312 311 311 311 311 311 311 309 308 306 304 300 301 302 302 302 303 302 302
333 333 332 332 332 332 331 330 327 324 324 320 314 313 310 309 308 310 310 309 309 308 306 304 302 300 297 297 296 296 296 298 301
335 334 334 333 332 332 331 330 328 324 322 318 316 318 313 309 307 308 309 308 307 306 305 304 301 299 298 296 296 295 294 297 302
336 334 334 333 333 332 332 330 329 324 320 318 321 322 322 311 308 306 307 307 306 305 303 302 300 299 298 297 296 294 294 293 299
336 336 334 334 333 332 331 331 330 324 321 315 318 318 313 317 311 306 305 306 305 304 302 300 298 297 296 296 297 297 294 292 297
333 333 334 333 334 333 331 330 330 324 322 316 314 312 310 308 310 310 304 304 303 303 302 299 297 296 295 295 294 293 292 291 295

GFSFLT1_925_thetae_072.txt.gz
Theta_e
333 332 332 333 335 338 336 330 329 327 327 325 324 330 331 332 332 334 334 335 337 337 336 335 335 334 336 336 336 336 334 334 333
331 331 330 332 333 338 335 330 329 329 326 326 324 329 330 333 334 333 330 331 335 335 333 331 331 332 332 332 333 334 334 334 333
333 331 330 332 334 337 335 332 330 329 324 326 325 329 330 332 330 331 327 333 334 332 331 330 329 328 328 328 329 330 330 330 330
334 331 334 333 334 336 335 331 329 327 322 326 326 329 330 329 332 330 327 332 333 331 329 328 326 326 326 325 324 324 325 325 326
332 332 333 336 335 335 333 330 327 323 321 326 326 327 330 329 330 328 325 330 331 329 327 326 325 324 323 322 321 321 321 321 321
330 330 331 332 333 333 332 329 326 320 320 325 327 326 330 329 330 329 325 330 330 327 325 323 322 321 320 320 319 319 318 318 318
322 330 331 331 331 332 330 327 320 321 321 323 326 329 329 328 328 328 324 330 328 326 323 321 320 319 319 319 318 317 317 316 316
325 327 330 330 330 331 328 322 321 328 327 327 324 329 329 327 326 324 322 329 328 325 321 319 318 317 317 317 316 316 315 315 315
327 327 323 328 329 329 326 325 322 328 329 327 326 327 327 325 323 322 320 328 327 323 320 318 317 317 316 316 315 314 314 314 314
327 327 327 328 329 327 328 329 329 329 329 326 326 326 324 323 320 318 317 323 324 321 319 317 316 316 315 314 313 313 312 313 313
330 327 328 328 329 327 329 329 330 329 329 325 324 324 323 320 318 316 316 320 324 321 319 316 316 315 313 313 312 310 310 309 310
331 332 329 328 328 328 328 329 329 328 328 326 323 322 320 318 316 317 320 320 323 321 318 315 314 314 313 312 311 308 307 307 306
331 331 333 332 331 328 328 328 329 328 327 324 321 319 318 316 315 316 319 321 320 320 317 314 313 312 312 310 309 307 305 305 304
331 331 332 334 332 332 328 327 328 328 325 323 321 317 316 315 315 315 316 320 318 316 315 312 311 310 309 309 308 306 304 302 302
331 332 333 332 333 332 331 328 327 328 325 322 320 317 314 314 314 314 314 314 314 313 311 310 309 306 307 306 306 305 304 302 302
332 332 333 332 332 332 331 330 328 327 325 322 318 315 314 312 311 312 312 312 312 311 310 309 307 305 302 303 303 302 301 298 301
334 333 333 332 332 332 332 331 330 328 325 322 314 311 312 311 310 310 310 310 310 310 308 307 305 302 301 299 298 297 296 298 302
337 335 334 333 333 332 332 332 330 328 325 324 317 317 317 309 309 309 308 309 309 308 307 306 304 301 299 298 297 296 295 296 299
336 338 336 334 334 333 332 332 330 329 324 322 319 320 316 311 307 307 307 308 308 307 306 304 303 300 299 298 297 296 295 294 297
335 333 335 336 334 334 333 332 331 330 326 321 318 317 317 312 309 304 305 306 307 306 305 303 302 299 298 297 296 297 296 293 296

GFSFLT1_925_thetae_075.txt.gz
Theta_e
333 328 330 334 338 336 330 328 327 322 321 327 330 331 332 333 332 334 334 336 337 336 334 333 334 335 335 335 336 334 334 335 335
328 331 331 333 337 337 332 329 327 322 322 327 329 330 334 333 332 329 328 335 334 332 331 329 331 331 331 332 333 333 333 333 333
333 329 332 333 338 336 335 331 328 323 324 324 329 329 332 330 329 327 328 333 333 330 329 328 328 328 328 328 329 330 330 330 330
330 332 333 334 337 336 333 331 328 322 323 324 329 330 330 331 329 328 327 332 332 329 328 327 327 326 325 325 325 325 325 326 326
332 334 333 332 334 335 332 330 327 321 321 324 328 330 329 331 329 328 326 331 331 328 327 325 325 323 322 321 321 321 321 322 322
331 332 334 334 333 333 332 330 327 319 320 325 325 330 329 329 329 327 326 331 329 327 325 324 323 321 321 320 320 319 319 319 319
330 329 331 332 332 332 332 330 324 318 318 323 324 329 329 329 328 327 325 330 328 326 323 321 320 320 320 319 318 318 317 317 318
322 330 330 330 330 331 331 328 318 320 323 322 323 329 329 327 327 326 324 327 327 325 321 320 319 319 319 318 317 316 316 316 316
327 326 328 330 330 330 330 325 318 327 328 327 325 327 327 326 326 324 322 324 327 324 321 319 318 318 318 317 315 315 315 315 314
327 326 326 324 326 327 326 323 320 327 328 328 326 326 325 324 323 322 320 321 325 323 320 319 318 317 317 316 315 314 314 314 313
329 327 327 326 328 326 327 328 329 329 329 328 325 326 324 323 321 318 317 317 322 322 320 318 318 317 315 315 313 312 312 312 311
330 328 326 327 328 329 327 328 329 329 329 328 325 324 323 322 320 317 316 318 321 321 321 318 317 316 315 314 312 310 309 308 308
331 331 328 327 328 328 327 328 329 329 328 328 326 323 322 321 319 316 317 319 320 321 320 318 316 315 315 314 312 309 308 307 305
331 330 331 331 329 329 327 327 328 329 328 327 326 321 320 318 316 316 316 319 321 320 319 317 314 314 314 313 311 309 306 306 303
332 331 330 331 333 332 330 328 327 327 328 326 324 322 318 316 315 315 316 317 319 319 317 316 314 310 312 311 311 309 306 304 304
332 331 330 331 332 333 332 331 328 327 327 326 321 320 317 315 315 315 314 314 315 317 316 313 311 310 307 310 309 308 307 304 303
333 332 331 331 332 332 332 332 330 328 327 324 316 312 313 314 313 313 313 312 313 313 312 311 310 309 307 305 306 306 305 303 302
334 332 332 332 332 332 332 331 331 329 328 326 321 313 314 310 312 312 311 311 311 312 312 310 309 307 306 303 302 301 300 301 303
338 337 335 332 332 332 332 332 331 330 327 324 323 322 318 311 311 309 309 309 309 310 310 309 307 306 303 301 299 297 297 299 300
332 332 333 334 335 333 333 332 331 330 328 326 324 319 319 313 309 310 307 307 308 309 309 308 307 304 301 299 298 297 297 298 298

GFSFLT1_925_thetae_078.txt.gz
Theta_e
330 330 334 339 335 330 328 323 318 325 329 330 330 332 332 332 333 334 336 336 335 334 333 334 334 333 335 336 335 335 335 334 333
327 328 333 338 337 332 329 327 319 321 328 329 330 333 333 332 330 331 334 334 333 331 331 331 331 331 331 332 333 333 333 334 333
329 331 332 336 338 334 332 330 322 322 327 329 329 333 331 329 327 328 331 332 331 330 329 328 328 328 329 330 330 330 330 330 330
328 330 331 335 337 335 332 331 325 320 323 329 329 331 330 329 328 327 329 331 330 329 328 327 327 326 326 326 326 326 326 327 327
332 332 335 336 336 334 332 331 327 318 323 328 329 329 330 330 328 327 327 330 330 329 327 326 325 323 323 322 323 323 323 323 323
334 333 333 334 335 334 331 330 327 317 323 325 329 329 330 330 328 327 327 330 329 327 325 324 323 322 321 321 320 320 320 320 320
333 333 333 333 333 333 331 330 327 318 320 324 327 329 328 328 328 327 326 329 329 326 324 322 321 321 320 320 319 319 319 319 319
330 329 331 332 331 331 331 330 326 318 319 323 324 327 328 328 328 327 326 327 328 326 323 321 320 320 320 319 318 318 317 318 317
327 326 329 330 330 329 330 330 325 319 322 322 323 327 328 327 327 326 325 324 328 325 322 320 319 320 319 318 317 317 316 316 316
327 325 326 328 328 327 329 329 323 320 327 327 326 325 326 327 326 325 323 322 323 325 323 321 319 319 319 317 316 316 316 315 315
328 327 326 325 325 323 324 324 323 319 327 328 327 325 325 325 324 323 321 320 321 322 323 321 320 319 318 316 315 315 315 314 314
328 328 327 326 326 326 325 326 327 328 328 328 327 325 325 323 322 320 319 319 319 320 322 321 320 319 317 317 314 313 312 312 311
330 329 329 327 327 328 328 327 327 328 328 329 328 327 323 323 322 320 318 317 317 320 321 321 320 319 317 317 315 312 311 310 309
331 331 330 329 327 327 328 328 327 328 328 328 328 327 324 322 322 320 318 316 317 319 320 320 318 318 317 317 316 313 310 309 308
332 332 331 330 330 327 327 327 327 327 327 328 327 326 324 321 319 319 317 316 317 319 320 320 319 316 315 316 315 314 310 308 306
331 331 331 330 330 330 329 330 328 327 326 327 325 324 323 321 318 316 316 315 316 318 320 320 318 316 313 313 314 313 311 308 306
332 332 332 331 330 330 331 332 331 330 328 325 318 317 319 320 320 316 314 314 315 315 318 319 317 315 313 310 310 312 311 309 306
333 332 332 331 330 330 331 332 331 330 328 326 324 313 315 312 316 316 314 312 313 313 314 316 316 314 311 310 308 309 308 307 304
338 337 333 331 331 330 331 331 331 330 328 325 324 322 317 313 314 312 312 312 310 311 311 312 313 311 310 308 306 306 305 302 303
333 334 334 334 333 334 332 331 330 330 329 328 326 323 319 314 312 317 311 309 308 308 309 309 310 310 310 306 303 302 300 299 299

GFSFLT1_925_thetae_081.txt.gz
Theta_e
332 334 340 334 329 328 320 318 327 329 330 330 330 332 332 333 334 336 336 334 333 333 334 334 333 335 336 336 336 335 334 332 334
325 331 338 337 331 329 325 318 327 329 329 330 331 332 332 333 334 334 333 333 332 332 331 330 331 331 332 334 334 336 335 335 334
325 329 335 338 334 331 330 320 321 329 329 329 331 332 331 328 328 328 331 331 331 330 329 329 328 329 329 330 330 331 330 330 331
330 329 334 338 336 333 331 327 320 324 328 328 331 330 329 328 327 327 329 330 331 329 328 328 327 326 327 327 327 327 327 327 327
330 329 332 337 336 334 332 330 323 323 325 328 329 330 329 328 328 327 327 328 330 329 327 326 325 324 324 324 324 324 324 324 324
331 332 335 336 336 334 332 331 327 319 324 326 328 329 330 329 328 328 327 329 330 328 326 324 323 322 322 322 321 322 322 321 322
333 333 334 334 335 334 332 330 328 322 321 324 327 328 329 329 328 327 328 329 329 327 324 322 322 321 321 320 320 320 320 320 321
334 333 333 332 332 332 332 331 329 324 317 323 325 327 327 328 328 327 327 328 329 325 323 321 321 321 320 320 319 319 318 319 319
330 331 330 332 331 331 330 331 330 322 318 319 323 325 326 328 328 327 327 326 328 327 324 322 321 321 320 319 318 318 318 317 317
323 326 325 328 330 329 328 329 329 323 319 323 323 323 324 326 326 327 326 325 325 325 324 322 321 320 320 319 317 317 317 316 316
326 325 324 327 327 327 326 325 327 323 319 326 327 326 325 325 325 326 325 324 324 323 324 323 322 320 320 318 317 316 316 316 315
330 328 327 327 325 325 324 324 325 325 320 324 327 327 326 325 325 324 324 322 322 321 322 324 322 321 320 319 317 316 315 315 313
332 330 328 328 326 326 325 326 326 327 327 328 328 328 327 325 324 322 321 320 320 320 319 321 323 321 320 319 318 315 313 312 312
333 332 329 329 328 326 327 327 327 327 327 327 328 328 328 326 323 322 321 320 319 318 317 319 320 320 320 319 319 317 313 311 310
334 333 331 329 329 328 326 327 328 327 326 327 327 328 327 326 324 322 321 320 318 317 317 319 320 320 318 319 318 318 316 311 310
333 333 332 330 330 330 329 327 327 327 326 325 326 326 326 325 324 322 320 319 317 316 316 318 319 320 319 317 317 317 316 312 308
332 332 331 331 331 330 330 329 327 327 327 325 320 321 323 325 325 324 321 318 315 315 315 317 319 320 319 317 314 315 315 314 310
333 332 332 331 330 330 330 330 330 329 329 328 325 317 319 314 321 320 319 317 314 313 313 315 318 320 318 316 313 312 312 312 309
337 336 334 332 331 330 330 330 329 329 328 327 325 325 320 317 318 317 316 318 318 317 313 312 312 315 317 316 312 310 309 309 308
336 336 336 335 335 332 331 331 330 329 328 328 327 325 321 317 314 321 317 313 313 312 310 309 309 310 312 313 312 309 308 307 305

GFSFLT1_925_thetae_084.txt.gz
Theta_e
337 341 333 329 327 319 323 327 330 330 329 331 331 331 333 334 335 335 333 333 334 333 333 332 334 336 336 336 335 335 331 333 334
334 340 337 330 329 323 321 327 329 330 330 330 331 331 333 334 334 333 331 332 332 331 330 330 330 331 332 334 334 334 334 334 334
329 337 339 334 330 329 321 325 328 329 329 330 331 331 330 331 329 329 330 331 331 330 329 329 328 328 329 330 330 330 330 331 331
326 333 338 336 333 332 328 320 324 328 328 329 332 329 327 327 327 328 329 329 330 329 328 327 326 326 326 327 327 327 327 326 326
333 332 337 337 336 333 331 326 321 325 327 328 330 330 328 328 327 328 327 328 330 328 327 325 324 324 323 323 324 324 325 324 324
330 329 334 337 336 334 332 330 325 323 325 327 328 328 329 328 328 328 328 330 329 326 324 322 323 322 322 321 322 322 322 322 322
329 330 334 335 335 334 332 331 328 320 322 326 327 328 329 329 328 327 328 330 330 325 322 319 321 321 321 320 320 320 320 321 321
332 334 334 334 335 334 332 331 330 326 318 322 325 327 327 327 328 327 327 329 330 326 323 320 320 321 320 320 319 319 319 319 319
333 332 332 332 331 331 331 331 330 328 319 317 322 324 326 327 327 327 327 327 330 328 324 322 320 321 320 319 318 318 318 318 318
328 330 331 329 331 330 329 328 329 329 322 318 319 321 323 325 326 326 327 327 326 329 326 324 322 321 321 319 318 317 317 317 317
320 322 325 324 326 328 327 326 326 328 326 318 324 325 326 325 325 325 326 326 325 325 327 326 324 322 321 320 318 317 317 316 316
330 325 325 325 326 326 327 326 325 324 323 318 323 327 327 327 325 324 324 325 324 323 325 326 325 323 322 321 319 317 316 316 315
334 329 329 327 327 326 326 325 325 325 326 327 326 327 327 328 327 326 324 323 323 322 321 322 323 324 323 321 320 318 315 314 313
335 333 332 330 328 327 326 326 326 327 326 326 327 327 327 327 328 327 324 322 321 320 320 320 320 321 322 322 321 320 316 313 311
335 335 333 332 329 328 327 326 326 327 327 327 326 326 327 327 327 327 326 323 321 319 319 319 319 320 320 321 321 320 319 314 312
335 334 334 333 331 329 328 327 326 326 326 326 326 326 327 327 326 326 326 324 322 319 318 317 319 319 320 320 320 320 320 317 311
332 332 333 333 332 330 328 328 327 327 326 325 321 322 325 326 326 325 325 324 323 321 317 316 316 317 320 320 318 317 318 318 312
331 331 331 331 331 330 330 329 328 328 327 326 326 320 322 317 324 324 324 323 321 318 315 313 314 315 318 320 319 317 315 313 314
336 333 332 331 331 330 330 330 329 328 328 327 326 325 324 321 321 321 320 318 320 319 316 314 312 311 313 316 318 317 315 312 312
337 337 336 335 334 334 332 331 329 328 328 327 327 325 323 321 316 322 320 318 318 316 318 314 310 309 309 312 314 315 314 312 311

GFSFLT1_925_thetae_087.txt.gz
Theta_e
341 333 330 326 320 329 333 332 330 329 333 332 331 333 335 334 333 333 333 334 333 332 331 334 334 335 335 336 336 333 334 334 334
341 336 330 329 322 323 329 329 329 329 330 330 331 333 334 334 332 332 333 332 331 331 330 330 330 330 331 332 334 334 334 334 333
336 339 333 330 328 323 328 328 329 329 330 331 331 331 331 329 328 329 331 329 330 330 329 328 328 328 328 329 329 330 330 330 329
332 339 337 332 332 327 324 328 328 329 329 331 330 328 327 327 327 328 330 330 330 329 327 326 326 326 326 327 327 327 327 326 326
328 338 337 336 333 332 327 323 325 328 328 330 331 329 328 328 327 327 330 331 330 328 326 325 324 323 323 324 324 324 324 324 324
327 334 337 337 336 332 331 327 321 323 327 328 328 328 328 328 327 327 328 331 329 325 321 319 320 321 322 321 322 322 322 322 322
328 330 336 335 336 334 332 330 327 320 323 326 327 328 328 328 328 328 328 330 330 325 322 318 318 318 320 321 321 321 321 321 321
328 331 334 334 335 334 332 331 329 327 320 322 325 327 327 327 327 328 327 328 331 327 324 320 319 318 319 320 320 319 320 320 319
332 334 334 334 334 334 332 331 330 329 326 318 320 323 325 326 327 327 327 327 330 330 325 322 320 321 319 319 319 318 319 318 318
331 332 332 332 331 331 330 329 328 329 328 320 318 319 322 323 325 326 325 327 327 329 328 325 323 322 321 319 318 317 318 317 317
323 329 330 329 326 328 329 327 325 326 328 326 319 323 324 326 325 325 325 325 326 326 329 328 325 323 322 321 318 317 317 316 316
332 322 322 324 324 326 326 326 326 324 324 323 318 322 326 326 327 326 325 324 325 325 324 329 327 325 323 322 320 318 317 316 315
333 332 326 326 326 326 326 326 325 325 324 325 326 326 326 327 327 328 327 325 324 324 323 323 326 326 324 323 322 320 317 315 314
334 334 332 330 328 327 327 326 326 325 326 326 326 326 326 326 327 327 327 327 325 323 322 321 322 322 324 324 323 322 319 316 313
335 334 334 332 331 329 327 327 326 326 326 327 327 327 327 327 328 327 327 327 326 324 321 319 320 321 321 322 323 323 322 317 314
335 335 335 334 333 332 329 327 327 326 326 325 326 327 327 329 328 328 327 326 326 325 322 319 318 318 319 320 322 323 322 321 315
335 335 335 334 334 332 331 328 326 326 326 326 323 328 327 327 327 326 325 326 325 323 321 319 316 316 317 320 320 320 321 321 317
333 334 333 331 332 332 331 330 327 326 327 326 326 324 326 321 325 325 324 323 323 321 319 319 316 314 314 316 319 320 319 319 318
335 333 331 331 331 330 330 329 329 328 327 326 326 325 326 325 326 323 323 324 322 321 319 317 315 313 312 312 316 318 318 317 316
337 336 335 333 332 332 331 331 329 328 327 327 327 326 324 322 319 322 322 320 320 318 317 317 315 313 313 310 310 313 316 316 316

GFSFLT1_925_thetae_090.txt.gz
Theta_e
338 329 322 323 331 334 334 332 333 334 334 333 333 334 334 335 335 334 333 331 332 332 333 333 334 335 336 336 335 335 334 334 334
333 330 326 320 328 331 331 330 329 333 331 332 333 335 335 334 333 332 331 331 331 330 329 330 330 331 332 333 332 334 334 333 331
338 331 330 324 325 329 330 330 329 331 331 331 331 331 330 331 331 331 330 330 330 328 327 327 328 328 328 329 329 329 329 329 328
341 335 331 331 325 328 329 330 329 329 331 330 328 327 329 331 331 330 330 330 330 328 326 325 326 325 326 326 326 326 326 326 325
339 339 335 333 330 323 322 326 328 328 329 330 328 327 330 331 331 331 330 331 329 327 325 324 324 324 323 324 324 324 324 324 323
333 340 337 336 333 331 327 322 324 327 327 328 328 329 331 331 331 331 328 331 329 324 320 320 320 321 322 322 322 322 323 323 323
331 338 335 336 336 333 332 329 323 324 328 329 328 330 330 330 331 331 328 331 330 325 322 319 318 319 321 321 321 321 322 322 321
331 335 336 335 335 336 334 333 332 330 324 326 328 328 329 329 329 330 327 328 331 328 324 321 320 319 319 320 320 320 320 320 319
331 333 335 337 336 337 336 334 333 332 329 323 323 325 327 327 328 329 327 327 329 331 327 324 321 321 320 320 319 319 319 319 319
333 334 334 335 335 334 334 333 332 332 331 327 322 322 324 325 325 327 327 325 327 328 330 327 324 322 322 320 318 318 318 317 318
331 333 333 333 332 332 332 330 329 329 330 329 324 323 325 327 327 327 327 325 325 327 329 329 327 325 324 322 319 318 318 317 317
331 329 330 330 330 329 330 330 328 327 327 327 326 322 325 327 328 328 327 327 325 325 326 329 329 327 325 324 321 319 318 317 316
332 332 328 328 329 330 330 330 329 328 328 327 328 328 327 328 328 328 327 327 327 327 324 324 325 328 327 325 324 321 319 317 315
334 333 332 329 329 329 330 330 329 329 329 329 329 329 329 329 328 328 328 327 327 327 326 324 322 323 325 326 325 324 321 318 316
335 335 334 333 331 331 330 330 330 329 329 329 328 329 330 329 329 329 328 327 325 325 325 325 324 322 322 323 324 325 324 320 317
336 336 335 334 333 332 331 330 329 330 329 329 330 330 330 329 330 329 328 327 324 324 322 322 323 323 322 321 322 324 324 323 319
337 336 335 334 333 332 331 330 330 329 329 330 330 332 331 330 329 327 326 324 322 321 321 320 320 320 321 322 320 320 321 323 322
337 335 335 334 333 333 332 331 330 330 330 328 330 329 332 328 326 325 324 321 320 320 320 318 318 316 317 316 315 318 320 320 321
335 335 333 333 333 331 332 332 331 330 331 329 327 329 328 329 327 324 323 323 320 321 317 315 316 316 315 314 313 314 317 319 321
336 337 334 332 331 331 331 331 330 330 331 331 330 327 324 323 323 325 326 321 320 318 318 317 317 315 314 312 312 311 313 316 317

GFSFLT1_925_thetae_093.txt.gz
Theta_e
333 328 332 332 334 335 335 335 335 335 334 334 334 334 335 334 332 332 331 331 331 331 333 333 334 335 336 335 336 335 334 333 332
329 322 328 333 334 334 334 335 334 332 333 334 334 335 332 332 331 330 330 331 329 328 328 329 331 332 332 332 331 332 331 331 330
330 328 323 331 334 334 333 331 334 331 332 332 332 329 331 330 331 331 330 330 329 327 326 327 327 327 327 327 329 329 329 328 327
333 331 328 325 330 329 328 328 330 330 329 327 327 328 331 332 331 331 331 330 329 326 324 322 321 321 323 325 326 326 325 325 324
338 334 332 327 323 325 327 328 328 329 330 327 327 328 332 332 332 332 330 330 329 324 323 322 323 322 323 324 323 324 324 324 323
338 339 334 332 329 324 322 323 326 327 328 328 327 331 331 331 332 332 327 330 328 323 320 320 319 320 322 323 323 323 323 323 322
340 338 335 335 333 331 329 324 320 327 329 328 326 331 330 330 331 333 327 330 329 325 322 320 318 319 322 322 322 322 322 321 321
337 338 335 335 335 335 333 330 332 329 326 327 329 329 329 329 329 331 327 328 332 329 325 322 320 319 320 321 320 321 321 320 320
331 336 338 335 336 336 335 335 334 333 330 325 324 326 327 328 328 330 328 326 328 332 328 325 322 321 320 320 318 319 319 319 319
331 333 335 336 336 336 335 334 333 333 332 329 323 322 324 326 326 327 328 326 325 327 331 328 325 323 322 320 318 318 317 318 318
333 334 334 334 334 333 333 332 330 330 331 330 327 323 324 326 327 328 328 327 325 325 327 331 329 326 325 323 320 318 317 317 317
331 331 332 332 331 330 331 331 329 328 327 328 327 324 324 327 328 329 329 328 328 326 325 327 330 329 327 325 323 321 319 317 314
334 333 330 330 330 330 331 330 330 328 329 328 329 328 326 327 328 329 329 328 328 328 327 325 327 328 328 327 326 323 321 319 317
335 334 332 329 330 331 331 331 330 331 331 330 330 330 330 330 330 330 329 329 328 328 328 327 325 324 325 328 327 326 324 321 319
336 335 335 333 331 331 332 332 331 331 331 330 329 330 330 331 331 331 330 329 328 327 327 327 326 325 323 322 326 326 325 323 320
337 337 336 336 334 333 333 332 332 332 331 330 331 331 331 331 331 331 330 329 327 326 325 324 324 325 324 322 321 323 325 324 323
338 338 337 337 336 335 334 333 332 331 331 331 332 333 333 332 330 330 329 328 325 324 323 322 322 322 322 322 323 322 321 324 324
339 338 337 337 336 335 334 333 331 332 331 330 331 332 333 330 328 326 325 324 322 321 319 319 319 318 318 318 317 316 317 319 321
336 336 336 336 336 335 335 334 333 332 333 331 330 331 331 332 331 327 325 322 319 319 318 316 315 316 316 315 315 314 314 316 318
334 332 333 333 334 334 334 334 333 333 332 333 331 329 329 327 327 328 327 324 319 317 317 317 315 315 314 314 313 312 312 313 316

GFSFLT1_925_thetae_096.txt.gz
Theta_e
333 334 333 333 334 335 336 335 334 335 334 333 334 332 332 331 330 329 327 328 329 331 332 334 335 335 334 333 333 332 331 332 331
330 331 332 332 334 335 335 334 335 333 333 334 333 331 331 330 329 326 326 328 327 327 327 327 331 331 331 332 332 332 330 328 326
320 327 332 333 334 333 334 332 330 332 333 332 329 330 331 331 331 326 324 327 327 325 325 325 325 326 326 327 328 327 326 325 325
328 321 327 331 328 328 329 330 329 328 327 326 329 331 331 331 331 328 325 327 327 325 322 324 324 324 324 325 325 325 325 324 324
332 329 324 325 326 327 327 328 329 328 326 325 329 331 332 332 332 326 325 327 325 322 318 320 323 323 323 324 324 324 324 323 323
336 335 331 324 321 322 324 326 326 327 327 325 330 331 331 331 332 330 326 327 324 321 320 318 320 322 323 323 323 323 323 322 322
337 336 334 333 329 327 322 320 322 328 329 326 330 330 330 330 331 331 326 328 327 324 322 320 319 320 322 322 322 322 321 321 321
340 334 333 334 333 332 330 327 329 328 327 329 329 329 329 329 329 330 326 327 330 328 325 322 320 320 320 320 321 321 321 321 320
339 336 334 334 334 333 334 335 333 332 329 325 324 326 327 327 328 329 329 325 327 331 328 325 322 321 320 319 317 317 320 320 319
332 338 335 334 334 334 334 336 334 333 332 330 324 322 324 325 326 326 327 327 324 326 330 328 325 323 322 320 319 316 314 319 318
330 333 336 336 336 336 335 333 332 331 331 331 329 324 323 324 326 327 328 328 327 324 326 330 329 326 325 323 321 320 318 316 314
333 334 334 334 334 333 332 331 330 328 328 328 328 327 323 326 327 328 329 328 328 328 325 325 331 330 327 326 324 321 320 318 316
331 331 332 332 331 330 330 330 330 328 327 328 327 327 325 324 327 328 329 328 328 328 328 327 325 327 328 328 327 324 322 320 318
333 333 331 329 330 330 330 330 330 330 329 330 329 329 330 330 330 330 329 329 329 328 328 328 327 325 324 327 328 327 325 323 321
335 334 334 330 329 330 330 331 330 330 330 330 330 329 330 330 330 330 330 330 330 328 327 327 326 326 325 323 324 327 326 325 322
336 335 335 334 331 331 331 332 332 331 330 330 330 330 330 330 330 330 330 330 328 327 326 325 324 324 324 323 322 323 323 325 323
337 336 336 336 335 334 333 333 332 332 332 330 330 329 331 332 331 331 330 328 326 325 323 323 322 322 322 322 323 323 322 322 323
337 338 337 336 336 336 335 334 333 332 331 331 331 328 329 329 330 329 328 326 324 323 321 319 320 320 319 319 319 318 317 316 318
335 335 335 334 334 335 335 334 334 332 331 331 331 331 331 327 327 327 325 324 321 319 317 316 317 318 317 317 317 316 315 314 316
329 330 331 330 329 333 334 333 333 333 332 332 331 331 330 330 326 325 324 322 320 318 316 315 315 315 314 314 314 313 313 313 314

GFSFLT1_925_thetae_099.txt.gz
Theta_e
334 334 332 330 332 335 335 336 335 334 333 332 332 331 330 328 319 321 326 328 329 330 332 332 333 333 333 332 331 331 329 327 327
334 333 332 335 336 335 335 335 333 333 333 331 330 330 330 326 319 322 325 328 328 327 328 329 329 330 329 330 329 328 327 326 326
334 332 332 333 335 334 334 332 333 333 331 330 330 331 331 330 321 320 322 327 327 326 326 326 326 326 327 327 326 326 326 325 325
329 331 333 331 330 333 330 329 329 328 326 330 331 331 331 331 325 322 322 327 327 326 325 325 325 325 325 326 325 325 325 324 325
320 325 325 326 327 328 328 327 325 324 324 330 331 331 331 331 331 324 323 326 327 325 325 325 324 324 324 325 324 324 324 324 324
329 322 320 323 325 325 325 326 326 325 324 330 331 331 331 332 331 328 325 325 325 322 320 321 321 323 323 324 323 323 323 322 322
334 332 327 322 320 320 321 323 323 326 325 329 330 330 331 330 329 329 325 327 326 323 321 320 320 320 321 323 322 322 322 321 321
336 333 333 332 330 328 324 319 327 327 328 328 329 328 329 329 329 329 327 325 328 327 324 322 320 320 319 319 320 321 321 321 320
336 333 332 333 332 332 331 332 331 330 328 325 325 326 327 327 328 328 328 326 326 328 327 325 322 321 320 319 318 316 319 320 320
337 335 333 333 333 333 333 335 334 332 331 328 324 322 324 325 326 326 327 327 325 325 328 327 325 324 322 320 319 317 316 318 318
334 335 335 334 334 334 334 335 333 332 332 331 330 326 322 323 325 325 327 328 327 326 326 331 329 327 325 323 321 320 318 317 315
330 333 336 336 336 335 335 333 331 330 329 330 329 328 324 324 325 327 328 328 328 328 327 325 330 330 328 327 325 322 320 319 317
332 333 335 334 333 332 332 331 330 329 327 327 327 326 325 323 326 327 328 328 328 328 328 328 326 327 328 329 328 326 324 322 320
330 332 332 333 332 331 330 330 330 329 328 328 328 328 329 329 328 328 329 329 329 328 328 328 327 326 325 325 329 327 326 324 322
332 332 331 330 329 330 330 330 330 330 330 330 330 329 329 330 330 330 330 330 330 329 328 326 326 326 326 324 325 328 326 325 324
335 334 333 333 329 329 330 330 331 330 330 330 330 330 329 329 329 330 330 330 329 328 326 325 325 324 324 324 323 323 325 325 324
335 335 335 334 332 331 331 331 331 331 331 330 329 327 330 331 331 330 330 330 328 326 325 324 323 322 322 323 322 323 323 322 322
336 335 335 336 335 334 334 333 332 332 331 331 330 326 327 327 329 329 326 325 324 323 322 321 320 320 320 320 320 319 318 317 316
335 336 335 335 335 335 334 334 334 333 331 331 330 330 330 327 328 325 322 321 321 320 320 319 318 317 317 318 318 317 316 315 315
328 329 333 332 331 331 330 329 330 330 332 331 330 330 329 329 326 327 321 319 318 318 317 317 317 317 316 316 316 315 313 313 313

GFSFLT1_925_thetae_102.txt.gz
Theta_e
334 334 334 333 334 336 337 334 334 332 331 331 330 329 320 315 318 323 327 329 330 332 331 331 332 332 331 330 328 328 327 326 326
333 331 332 335 334 335 336 334 332 331 330 330 329 329 319 317 319 322 326 328 328 328 329 329 329 329 328 328 327 326 326 326 326
333 335 336 334 335 335 333 333 333 330 330 330 330 331 325 319 319 321 325 327 327 327 327 327 327 327 327 326 326 325 325 325 325
333 333 334 334 334 333 332 332 332 329 330 330 330 331 330 324 322 322 324 327 327 326 326 326 326 326 326 326 325 325 325 324 324
333 330 329 332 329 328 329 329 325 328 330 330 330 331 330 329 325 323 324 327 327 325 325 325 325 325 325 325 324 324 324 323 324
325 326 326 326 328 326 325 324 323 325 330 331 331 331 331 331 330 325 325 325 324 321 320 322 324 324 324 324 323 323 323 323 323
320 322 324 325 325 325 325 325 324 323 328 330 330 330 331 330 329 327 325 326 324 322 321 320 320 321 323 323 323 323 322 322 322
330 325 322 321 320 319 321 321 325 327 327 329 329 328 329 329 329 328 326 325 326 325 323 321 320 320 321 322 322 322 321 321 321
333 332 331 329 327 325 321 323 327 326 326 326 326 327 327 327 328 328 327 326 325 326 326 324 322 321 320 320 320 321 321 321 320
334 332 331 331 330 330 331 331 331 330 328 325 323 324 325 326 326 326 326 326 325 326 327 327 325 323 322 320 319 318 320 319 319
336 335 333 332 332 331 333 334 334 332 331 331 329 324 322 323 325 325 326 327 327 326 331 330 328 327 325 323 321 320 319 318 318
332 335 335 334 334 334 333 334 332 332 331 330 330 329 326 322 323 325 327 328 328 327 327 329 331 330 329 327 325 322 320 319 317
329 332 334 335 335 335 335 334 331 329 328 327 328 328 326 324 323 326 327 327 328 328 327 327 327 329 329 329 328 326 325 323 321
331 330 332 336 334 334 332 331 330 330 329 327 327 327 327 326 325 324 326 327 328 328 328 328 327 327 326 326 327 328 326 324 323
330 331 332 332 331 331 330 329 329 329 329 328 328 329 328 328 329 329 329 329 329 329 328 327 326 326 325 325 325 328 327 325 325
330 329 330 330 330 330 330 329 330 330 329 329 329 329 329 329 328 329 330 330 330 329 328 326 325 325 324 324 324 323 323 324 324
335 334 333 332 332 329 329 329 330 330 330 330 328 325 328 330 329 329 329 329 329 327 326 325 324 323 323 322 323 322 322 322 322
335 334 334 334 334 333 330 330 330 330 330 330 330 325 327 325 327 327 328 327 324 323 322 322 321 321 321 320 320 320 319 317 317
335 335 334 334 335 334 331 332 332 331 331 330 330 329 329 328 327 322 321 319 320 320 319 318 319 318 318 318 318 318 317 315 315
333 333 332 334 333 332 332 331 330 329 330 330 330 329 329 329 326 326 319 317 317 317 317 318 319 317 317 317 316 316 315 314 313

GFSFLT1_925_thetae_105.txt.gz
Theta_e
335 334 334 332 336 337 336 334 332 332 331 329 323 315 314 315 319 324 327 330 331 331 330 329 329 328 328 327 327 327 327 326 327
334 334 330 331 337 337 336 332 331 331 329 328 323 316 316 317 320 324 326 328 329 329 328 328 329 328 327 327 326 326 326 326 326
334 332 333 334 337 336 333 331 330 330 329 330 327 321 319 318 319 322 325 328 328 327 327 328 328 327 327 326 326 326 325 325 325
335 335 334 336 337 334 332 331 329 330 329 330 330 328 323 321 322 322 324 327 328 327 326 327 327 326 326 325 325 325 324 325 325
336 334 334 334 334 332 332 331 329 330 330 330 330 330 329 326 323 323 324 326 327 326 326 326 326 326 325 325 324 324 324 324 323
333 332 332 328 330 330 330 327 327 329 330 330 330 330 330 329 325 324 324 325 324 323 324 324 325 325 324 324 324 323 323 323 323
326 326 327 327 326 325 324 323 324 329 330 329 330 330 330 329 327 326 325 326 324 322 321 320 322 324 324 324 323 322 322 322 322
324 325 325 326 326 326 325 324 323 325 329 329 328 329 330 329 328 327 326 326 326 324 322 321 320 320 322 324 323 322 322 321 321
322 321 322 321 322 322 323 322 326 326 327 328 326 327 328 328 328 328 327 326 327 326 325 324 322 321 321 321 321 321 321 320 320
330 327 326 325 325 323 320 324 326 326 326 324 324 323 325 326 327 327 326 326 327 327 327 326 325 324 322 321 319 320 320 320 319
332 331 330 330 329 329 330 330 331 332 330 328 327 325 321 323 324 325 325 326 326 326 330 330 328 327 326 323 321 320 320 319 317
334 334 333 332 331 331 332 333 333 333 332 331 331 330 327 322 322 323 324 326 327 327 326 331 330 330 329 327 325 323 321 319 318
332 334 334 333 333 333 333 333 333 332 331 329 328 329 328 326 323 323 325 327 327 328 327 327 327 327 328 328 327 326 324 323 322
330 331 332 333 334 334 334 334 333 330 328 328 327 326 326 326 324 323 324 325 327 327 328 327 327 327 326 326 325 327 326 325 323
330 330 330 330 334 335 334 333 331 329 329 328 328 327 328 328 327 328 327 327 328 328 328 328 327 326 326 325 324 324 324 325 325
328 330 331 333 334 332 332 329 329 329 329 329 329 329 329 329 329 328 328 329 329 329 329 328 327 325 324 324 323 323 323 323 324
329 328 329 330 330 329 329 329 329 329 329 329 327 325 327 328 328 329 328 328 329 328 328 326 326 324 323 322 322 322 322 321 321
333 332 333 332 332 331 329 328 329 329 329 329 329 325 326 325 325 324 326 328 328 326 324 324 324 322 321 320 320 320 320 318 317
335 334 334 333 333 333 332 329 329 330 330 330 330 329 328 327 327 323 322 320 322 321 321 321 321 320 319 319 318 318 318 316 315
336 335 334 333 334 334 333 332 330 330 330 329 329 329 329 328 327 326 321 319 318 321 319 318 319 319 319 319 318 316 315 314 313

GFSFLT1_925_thetae_108.txt.gz
Theta_e
335 334 332 334 336 336 335 332 331 329 326 318 315 315 315 316 319 325 329 331 331 330 330 329 329 328 328 327 327 327 327 327 327
334 334 331 336 336 336 332 331 330 328 323 316 316 316 316 317 320 324 328 329 330 329 329 329 328 327 327 327 327 326 327 326 326
333 334 335 336 336 335 331 330 330 328 327 320 318 318 318 319 321 323 326 329 328 328 328 328 327 327 326 326 326 326 326 326 326
334 333 336 336 336 335 330 330 330 328 329 327 324 322 321 321 323 324 326 328 329 328 328 327 327 326 326 325 325 325 325 325 324
334 333 335 337 336 334 330 329 329 329 329 329 329 327 326 323 323 324 326 329 329 328 327 327 327 326 325 325 324 324 324 324 324
335 334 336 336 334 332 331 328 329 329 329 330 330 329 328 325 324 325 326 328 327 325 325 326 326 325 324 324 323 323 323 323 323
332 332 332 332 331 331 330 326 328 329 330 330 330 330 329 327 326 326 326 328 326 322 321 321 323 324 324 324 323 323 322 322 322
330 330 328 328 328 326 324 324 325 328 328 329 329 329 329 328 327 327 327 328 327 324 323 322 321 322 322 323 323 322 321 321 321
326 326 327 326 325 325 324 324 323 325 327 327 327 327 328 328 328 327 326 327 328 326 325 324 323 322 321 320 320 320 320 321 320
324 324 324 324 323 322 323 321 325 326 326 326 325 323 325 326 327 327 326 326 327 328 327 326 325 324 323 321 320 319 319 318 317
320 320 320 321 321 322 321 322 326 329 328 328 325 324 322 323 324 325 325 325 326 327 330 330 328 327 326 324 322 320 319 318 316
329 329 328 329 328 329 330 331 332 333 332 331 330 330 329 325 321 322 324 325 326 327 326 330 329 329 328 327 325 325 322 320 319
332 332 332 331 331 331 331 332 333 333 331 331 329 328 328 327 326 322 323 325 327 327 327 327 327 327 326 327 327 326 325 323 322
332 333 332 333 332 332 333 333 333 333 331 329 327 327 326 325 325 324 323 323 325 326 327 327 327 326 326 326 325 325 325 325 324
330 330 331 333 333 333 333 333 333 332 329 328 328 327 327 327 327 326 327 326 326 328 328 328 327 327 325 325 324 324 323 323 324
330 330 330 331 331 332 334 334 333 330 328 328 328 328 329 328 328 328 328 328 328 328 328 328 327 327 325 324 323 322 322 322 322
329 329 329 330 330 332 333 332 329 328 328 328 327 326 326 327 327 328 328 327 327 328 328 327 327 326 325 322 321 321 321 321 320
328 328 329 330 331 332 330 329 328 328 329 328 328 326 327 325 325 324 327 327 327 328 327 326 325 325 323 322 321 320 320 319 318
332 329 329 330 330 329 328 327 327 328 329 329 329 329 329 327 327 323 322 324 325 325 324 323 322 323 321 320 320 319 319 318 316
333 332 332 332 332 332 332 331 331 330 330 328 327 328 328 327 326 326 323 322 322 321 321 321 320 320 319 318 317 319 317 315 315

GFSFLT1_925_thetae_111.txt.gz
Theta_e
336 334 334 336 335 337 336 330 327 322 319 319 320 320 319 320 325 330 330 331 331 330 329 329 329 328 328 328 328 328 327 328 327
335 333 335 336 336 333 335 330 325 317 316 316 317 318 318 321 327 329 330 330 330 330 329 329 328 328 328 327 327 327 327 327 327
334 333 336 336 333 333 334 329 327 319 317 318 318 319 320 321 326 328 329 329 330 329 329 328 328 327 327 326 327 327 326 325 326
334 336 336 336 334 332 332 329 328 325 322 321 321 321 322 322 326 328 329 329 330 329 328 328 327 326 326 326 326 325 325 325 325
335 336 335 335 333 330 330 329 329 329 328 327 326 324 323 323 324 329 329 330 329 329 328 328 327 326 325 325 325 324 325 324 324
334 337 336 335 333 329 329 329 329 329 329 329 328 327 324 324 324 329 328 330 329 326 327 327 326 325 325 324 324 324 324 323 324
335 335 336 335 333 330 328 329 329 329 329 329 329 328 327 326 325 328 328 329 326 322 321 322 323 324 325 324 323 323 323 323 323
334 335 335 334 332 331 327 328 328 329 329 329 329 329 328 327 327 326 328 329 327 324 323 322 321 322 322 323 323 321 322 322 321
333 332 333 331 330 328 324 324 327 328 328 328 327 327 328 328 327 327 327 329 328 326 325 324 323 323 322 321 320 319 318 319 320
330 328 327 327 325 324 324 323 323 325 327 327 326 324 325 325 326 327 326 327 328 328 327 326 325 325 323 322 321 319 318 315 316
325 326 325 324 324 323 323 321 324 325 326 326 324 323 322 323 324 325 325 325 326 328 330 330 329 327 326 325 323 322 320 318 316
323 323 322 320 319 320 321 321 326 330 331 331 329 330 329 326 322 321 324 324 325 327 327 329 329 329 328 327 326 325 324 322 321
320 320 322 325 327 328 329 330 332 332 331 331 330 329 328 328 327 323 322 323 325 327 327 327 327 326 326 329 328 327 325 324 322
329 328 329 330 330 330 330 331 332 332 332 330 328 327 327 326 325 325 324 322 324 326 326 327 327 327 326 326 325 324 324 325 325
333 332 332 332 332 332 332 332 333 333 331 328 328 328 327 326 326 326 324 325 325 324 327 327 327 327 326 325 324 323 323 323 323
332 332 333 333 333 333 332 332 332 332 330 327 328 328 328 328 327 327 327 327 327 328 328 327 327 326 327 325 323 322 321 322 322
330 329 330 331 332 332 332 333 332 329 328 328 327 330 327 327 327 327 327 327 326 327 328 328 328 327 326 324 322 321 321 321 320
330 329 329 331 331 330 330 332 330 328 328 328 329 329 329 326 326 325 326 326 326 326 327 327 326 325 324 323 320 320 319 319 319
329 328 328 328 328 330 330 330 328 328 328 328 329 329 329 328 329 323 322 323 324 325 325 324 324 324 324 322 320 319 318 319 318
327 327 328 328 330 330 330 329 328 329 329 329 328 327 327 327 327 327 323 324 324 324 323 323 322 323 324 322 319 318 318 317 315

GFSFLT1_925_thetae_117.txt.gz
Theta_e
337 337 340 339 338 334 336 336 336 333 334 333 327 327 329 329 330 330 330 331 331 331 330 330 329 329 329 329 328 329 328 329 327
336 338 336 337 337 335 334 330 324 325 321 318 320 327 329 330 331 331 331 331 331 331 330 330 329 329 329 328 328 328 328 328 327
336 337 335 335 332 329 326 323 317 315 316 318 324 328 329 330 331 331 331 331 331 330 329 329 329 329 328 328 327 328 327 326 327
336 336 335 335 333 327 322 319 317 318 319 320 325 328 329 330 330 330 331 331 331 329 329 328 328 328 327 327 327 327 327 327 325
336 335 335 335 333 326 321 319 320 320 321 321 323 328 329 330 330 330 331 331 331 330 329 328 327 327 326 326 326 326 326 326 325
337 338 334 335 330 328 325 323 323 324 323 322 327 328 329 330 330 330 330 331 330 329 329 328 327 326 326 326 325 325 325 325 325
339 337 333 334 332 332 329 327 327 329 328 327 329 329 329 330 330 329 329 331 329 328 327 326 326 325 326 325 324 324 325 324 324
338 334 332 333 332 333 330 328 332 332 331 331 330 329 329 330 330 328 329 330 329 326 324 324 323 324 324 323 323 322 323 322 322
337 334 333 333 332 332 331 331 331 331 330 330 330 330 330 330 330 326 326 329 329 326 325 325 324 324 323 322 320 319 318 318 317
335 334 333 333 333 331 331 330 330 330 329 329 328 329 330 330 330 331 325 327 328 328 327 326 326 325 324 323 322 320 319 317 316
335 334 336 334 333 331 329 328 329 329 329 328 327 325 327 327 329 330 329 325 327 328 329 329 328 327 326 325 324 324 322 321 319
335 335 335 334 332 329 328 327 327 328 329 330 328 326 326 325 326 327 328 328 325 326 329 332 331 330 330 328 326 325 325 323 322
333 333 333 331 329 328 326 326 327 331 333 333 332 331 330 329 328 326 326 328 329 328 326 327 328 329 330 330 330 330 326 325 324
331 330 329 328 327 326 326 327 330 333 333 332 332 330 329 329 328 327 326 326 327 328 329 328 327 327 327 330 330 329 328 326 325
329 328 327 327 329 331 332 332 333 333 333 332 330 330 330 330 328 328 327 326 326 327 328 329 328 327 326 326 326 326 327 326 325
327 327 329 330 332 332 333 333 334 334 333 332 331 331 330 331 330 330 329 329 328 328 328 329 329 329 327 326 326 326 324 323 322
329 331 332 333 334 333 334 334 335 335 334 332 331 334 332 330 329 328 328 328 328 328 329 328 328 328 327 326 326 325 323 321 322
333 333 333 334 334 334 335 334 334 334 333 331 332 333 335 332 330 327 325 326 326 326 326 326 326 327 326 327 325 324 321 321 319
335 334 334 334 334 334 334 334 334 335 332 329 329 331 332 332 332 328 325 324 324 326 326 326 326 324 324 325 324 323 324 322 320
333 333 331 331 332 333 333 332 333 332 330 331 332 330 330 330 329 331 327 325 325 324 324 323 323 321 323 322 321 322 323 323 320

GFSFLT1_925_thetae_120.txt.gz
Theta_e
341 340 338 338 337 338 337 336 336 335 329 322 328 329 330 329 330 330 330 331 331 331 330 330 330 330 329 329 330 329 328 328 329
338 339 338 336 330 335 336 337 330 330 325 325 328 329 330 330 331 330 331 331 331 331 330 330 330 329 329 329 328 329 327 327 328
337 339 337 336 331 326 324 323 320 317 317 327 329 330 331 331 331 329 330 331 331 330 329 329 329 328 328 328 328 328 326 326 327
338 336 335 334 327 323 318 315 315 317 320 327 329 330 330 330 330 328 330 331 331 330 329 329 328 328 328 327 327 327 326 326 326
336 335 333 329 324 318 316 317 318 319 321 326 328 330 330 330 330 328 330 331 331 330 329 328 328 327 327 326 326 326 326 326 325
336 335 335 330 322 319 319 319 320 321 322 327 328 329 330 329 328 327 330 331 330 330 329 328 327 327 326 326 326 326 325 325 324
335 335 335 331 325 322 321 322 324 322 323 328 329 328 330 330 328 326 329 331 330 327 325 326 326 326 325 325 325 325 324 325 324
337 334 334 331 330 327 326 327 330 330 327 331 329 329 329 330 328 324 327 329 328 325 324 323 324 324 323 323 322 323 322 323 323
334 333 334 332 331 329 327 330 332 332 331 331 330 329 329 330 330 323 325 326 327 326 325 324 324 323 322 321 320 318 317 317 317
333 332 331 330 333 329 328 330 331 330 330 329 329 330 330 330 330 329 324 325 326 326 326 325 325 325 324 323 322 321 320 318 316
332 332 333 331 332 331 331 330 330 329 329 328 328 327 328 329 329 330 329 324 326 327 328 328 328 327 325 324 324 324 323 321 320
334 332 331 333 333 331 329 328 328 328 328 328 327 325 324 325 326 328 329 329 325 326 328 331 331 330 329 328 326 325 325 324 323
334 332 334 334 332 329 327 326 326 328 329 332 331 330 330 329 326 326 325 327 328 328 326 327 329 330 330 331 331 330 327 325 325
333 333 334 332 329 328 326 326 327 331 333 333 332 331 330 329 329 328 326 326 327 328 329 329 327 327 327 327 329 328 327 325 325
333 332 331 329 327 326 325 326 329 332 333 333 331 331 330 329 329 328 327 326 326 326 327 328 328 328 327 326 327 326 326 325 325
330 330 329 327 327 329 330 332 333 333 333 332 331 330 330 330 330 329 329 329 326 326 327 329 329 329 328 327 326 326 326 324 323
329 328 327 328 330 331 332 332 333 333 333 332 331 329 330 330 330 329 328 328 328 328 328 329 329 328 328 327 327 326 326 324 322
327 327 328 331 333 333 333 334 334 334 333 332 331 328 329 330 328 328 326 326 326 326 326 326 326 326 326 326 326 326 325 325 322
330 331 331 333 333 333 334 334 334 335 332 331 330 330 330 328 328 327 326 326 325 325 325 326 326 325 324 324 324 323 322 323 321
332 332 333 333 334 334 334 334 334 334 331 330 331 330 329 329 327 326 325 325 325 324 324 324 323 322 320 322 322 321 321 322 321

GFSFLT1_925_thetae_123.txt.gz
Theta_e
340 338 338 339 338 337 335 332 333 333 327 328 329 329 329 329 327 330 331 332 332 331 331 331 329 330 330 330 328 329 330 327 328
339 335 338 337 336 336 334 331 326 320 328 328 330 330 330 328 328 331 331 332 331 331 331 330 329 329 329 329 327 327 328 328 328
339 338 336 335 336 335 334 331 326 321 328 329 331 330 330 328 328 330 330 331 331 330 330 329 329 329 328 328 327 326 327 326 326
339 337 334 328 328 326 324 320 316 323 328 329 330 330 329 325 328 329 330 330 331 330 329 329 328 328 327 327 326 327 327 326 326
339 337 335 330 324 318 316 315 316 324 328 329 330 330 330 329 326 329 330 331 331 330 329 328 328 327 327 327 326 326 326 325 325
337 335 333 324 319 316 316 318 319 324 328 329 330 329 329 327 324 329 330 331 331 330 329 328 327 327 326 326 326 325 326 325 325
336 333 329 322 318 317 318 320 320 326 328 328 329 329 329 329 322 326 329 331 330 328 326 325 326 326 325 325 325 325 325 325 324
335 334 330 322 319 320 321 322 320 327 329 328 328 330 330 329 322 324 327 330 329 325 324 325 325 325 324 324 323 322 323 322 320
334 334 331 324 322 322 324 328 329 328 330 329 329 329 329 329 327 323 324 326 328 327 326 325 324 324 323 321 320 319 319 317 317
334 333 332 327 326 326 329 331 331 331 330 330 329 329 329 330 330 326 324 325 326 326 326 326 325 324 324 323 322 321 320 319 317
333 332 332 329 327 326 329 331 330 330 329 328 328 329 329 329 329 329 327 324 325 326 327 327 327 327 325 324 324 324 323 322 321
332 331 330 329 330 328 330 330 329 329 328 328 327 325 326 328 328 328 329 328 326 324 326 329 330 330 328 327 326 325 324 324 323
332 331 330 331 332 331 330 328 329 328 328 328 327 325 327 325 325 325 326 326 328 328 327 326 328 329 330 331 329 329 327 326 325
332 331 329 332 332 330 328 327 327 327 329 332 331 331 330 330 329 326 326 325 327 327 328 329 327 327 327 327 328 328 328 326 325
333 330 330 333 331 329 327 326 326 330 333 332 331 331 330 328 329 328 327 326 326 326 326 327 328 328 327 326 326 327 326 326 324
334 331 333 332 329 327 327 325 327 331 333 332 330 329 330 329 329 328 328 327 326 326 326 327 328 328 328 327 326 326 327 326 324
332 332 332 331 328 326 325 325 332 333 333 331 330 328 329 329 330 330 329 328 328 328 328 328 328 328 328 328 326 326 326 325 323
332 331 330 329 327 326 328 331 332 333 333 331 330 326 327 328 327 328 327 326 326 326 326 326 326 326 326 326 325 325 325 324 322
331 330 329 327 327 330 331 332 332 334 332 331 331 329 329 324 327 327 326 326 325 325 324 325 325 325 325 322 323 323 322 322 322
329 328 327 327 330 332 332 334 334 334 331 331 329 330 329 329 325 322 325 324 325 325 323 322 322 322 321 320 321 321 320 320 321

GFSFLT1_925_thetae_126.txt.gz
Theta_e
342 339 341 340 337 336 334 334 330 329 330 330 331 329 327 324 328 330 330 331 331 331 330 330 329 331 329 328 332 328 327 327 329
339 337 339 338 336 334 331 333 328 328 329 329 329 328 325 326 330 331 331 331 332 331 330 330 330 329 328 328 328 328 330 330 329
337 337 337 337 335 331 330 326 325 328 329 330 330 329 324 327 329 330 331 330 331 330 330 330 329 327 328 327 327 327 327 327 328
335 336 336 336 334 324 323 321 327 328 330 330 330 328 324 326 328 329 330 331 331 330 329 330 329 328 328 327 327 327 326 327 328
336 336 333 335 332 320 322 318 327 328 330 329 329 328 324 324 327 329 330 331 331 330 329 329 328 327 328 327 326 327 326 326 326
337 334 329 323 321 319 315 316 327 329 329 330 329 329 327 323 326 329 330 331 331 330 329 328 328 327 327 326 326 326 326 325 325
337 335 332 322 316 314 316 319 327 328 329 328 329 329 328 322 325 328 330 331 330 329 328 328 327 326 326 326 325 326 325 325 325
336 334 328 320 315 316 319 320 325 328 328 328 329 329 329 324 322 325 329 331 330 327 324 324 325 324 325 325 323 323 324 323 322
335 332 325 318 317 319 319 320 326 328 328 328 329 329 329 328 322 323 325 327 328 326 324 324 323 323 322 322 320 320 319 318 317
334 331 325 318 319 320 321 320 327 329 330 329 329 329 329 329 327 323 324 324 325 325 325 325 324 324 324 323 322 321 320 319 318
334 332 326 319 319 323 327 330 331 330 330 330 328 329 329 329 328 328 327 324 325 325 327 327 327 326 325 324 323 323 323 322 321
333 332 328 322 323 327 330 330 330 329 328 328 328 328 329 329 328 328 328 327 326 325 326 328 329 329 328 327 325 324 324 324 324
333 332 331 326 325 326 329 330 330 328 328 327 327 325 325 326 326 326 327 327 327 327 326 326 329 331 330 331 330 329 328 328 326
333 331 330 326 327 326 329 329 329 328 328 327 326 326 327 326 327 325 325 326 326 327 327 328 327 327 327 328 330 328 327 327 326
333 331 329 327 331 329 330 328 328 327 328 332 330 330 330 329 328 327 326 326 326 327 326 326 327 328 327 327 326 327 327 327 325
332 331 327 329 332 331 329 327 326 328 331 331 330 330 329 329 329 328 327 326 325 325 326 326 327 327 327 327 327 326 326 326 326
332 331 328 331 332 331 327 326 327 330 332 331 329 327 328 328 328 328 328 328 327 327 327 327 328 328 328 328 327 326 326 326 325
332 331 328 330 332 329 327 326 326 331 332 332 329 325 326 327 327 327 327 326 326 326 326 326 326 325 326 326 325 324 324 323 322
332 332 330 330 330 329 327 325 326 332 331 330 330 329 329 325 327 326 326 325 325 324 324 323 324 324 324 322 321 322 322 321 321
332 332 331 330 329 330 327 325 326 332 332 331 330 328 328 327 323 321 323 325 324 325 323 323 322 321 321 320 319 320 321 320 320

GFSFLT1_925_thetae_129.txt.gz
Theta_e
342 343 340 337 337 337 337 333 331 332 335 334 329 327 328 329 329 331 331 331 330 331 330 330 330 329 332 330 328 329 328 328 331
341 341 340 336 336 336 336 330 330 329 330 330 328 325 325 328 330 330 330 331 331 330 330 329 329 329 329 328 328 329 331 329 329
337 340 339 335 330 333 333 328 328 328 328 329 327 324 325 328 329 329 330 331 331 330 330 328 329 328 328 327 328 327 328 329 328
337 339 338 335 331 330 331 327 328 329 329 329 328 324 324 326 328 329 330 330 330 330 330 328 329 328 328 328 327 327 327 327 326
338 337 337 334 329 328 324 327 328 329 329 328 326 323 324 325 327 329 330 331 330 329 329 328 328 327 327 327 326 326 326 326 325
336 336 335 334 322 321 319 327 328 329 329 329 327 325 323 325 327 329 330 331 330 329 329 328 328 327 327 326 327 326 325 325 324
335 335 334 334 323 318 317 327 328 329 329 329 329 327 323 324 326 329 330 331 330 329 327 327 327 327 326 326 326 325 324 324 324
336 332 328 324 319 315 316 327 328 328 328 328 329 328 324 323 324 327 330 331 330 325 324 325 325 325 325 324 323 322 320 319 319
336 334 330 321 316 315 317 325 327 328 327 328 328 328 327 322 323 325 326 327 329 325 324 324 324 323 323 322 320 320 319 318 317
337 334 330 320 315 317 319 323 327 327 327 328 328 328 328 325 323 323 324 325 326 327 326 325 325 324 323 322 322 321 321 320 319
335 333 328 319 315 319 319 324 327 327 328 329 328 328 328 328 327 326 325 324 325 326 327 328 327 326 325 324 323 323 323 322 322
334 333 327 319 316 319 320 322 326 329 330 329 328 328 329 329 328 328 327 326 325 325 327 330 330 330 330 329 327 325 324 324 324
334 333 328 319 318 321 323 326 330 329 328 328 328 328 328 329 328 328 327 327 326 326 326 326 328 329 329 330 330 329 329 327 327
334 333 330 320 319 323 328 330 330 328 327 326 325 324 325 325 325 326 326 326 326 327 326 327 327 327 327 327 327 327 327 327 326
334 333 331 322 322 325 328 329 329 328 327 326 326 326 326 325 328 327 325 325 325 326 327 326 326 326 327 327 327 327 327 327 326
334 332 331 326 324 325 326 328 329 327 328 330 328 328 328 327 327 327 326 326 325 326 325 325 326 326 327 327 327 327 326 327 326
333 332 331 329 326 327 326 329 326 327 328 330 328 326 327 328 327 327 327 327 326 325 326 326 327 327 327 327 327 326 326 325 324
333 331 330 330 327 328 328 329 326 328 330 331 329 324 326 325 327 327 327 327 327 327 326 325 325 325 325 325 325 324 324 323 323
332 331 330 329 327 329 330 329 326 327 330 330 329 328 328 324 326 325 325 324 324 324 324 323 323 324 324 324 321 322 321 321 321
332 331 330 329 327 329 331 328 326 326 329 331 329 328 327 326 323 323 323 324 325 323 323 322 322 321 321 320 319 319 320 320 320

GFSFLT1_925_thetae_132.txt.gz
Theta_e
336 339 340 338 338 337 335 333 333 335 332 329 327 327 328 328 329 330 330 330 331 328 332 328 330 331 329 332 332 329 331 330 328
341 337 338 337 337 335 331 330 333 335 332 329 325 326 326 328 329 330 329 330 330 330 329 329 328 329 328 327 328 329 330 328 326
342 340 336 337 335 334 330 329 329 330 327 326 323 325 327 328 330 330 329 330 331 329 329 329 328 328 327 328 327 329 329 327 327
340 339 336 334 335 334 329 328 328 328 328 326 324 325 327 327 329 330 330 329 330 329 327 328 328 328 328 327 327 326 328 327 326
340 339 335 331 334 332 328 327 328 328 328 327 324 325 325 326 328 329 330 330 329 329 329 329 328 327 327 326 326 326 326 326 325
338 338 336 333 328 331 327 327 328 328 327 324 322 323 324 326 328 329 329 330 330 330 329 328 328 327 327 327 326 326 325 326 326
336 337 335 332 326 327 326 327 328 328 328 327 326 323 324 325 327 329 330 331 330 329 328 327 327 327 325 326 326 325 323 324 323
336 336 335 333 323 321 325 327 328 328 328 328 328 325 323 324 325 327 329 331 330 328 326 324 323 323 322 322 321 320 320 319 318
336 335 334 334 324 320 322 327 328 328 328 328 328 327 323 323 324 325 327 329 330 327 324 324 323 323 322 321 321 320 319 319 318
336 334 330 326 322 316 320 327 328 328 327 327 328 328 326 322 323 324 325 326 327 327 327 325 324 324 323 323 322 322 321 321 320
336 334 331 324 319 315 317 325 327 327 327 327 328 328 328 326 325 324 324 325 325 326 328 328 329 328 326 325 323 322 323 323 322
336 335 333 328 318 316 318 323 326 326 327 328 328 328 328 328 327 326 326 325 325 325 326 330 329 330 330 330 329 326 326 325 326
337 335 334 329 318 318 319 322 325 326 328 329 328 328 328 328 328 327 327 327 326 326 326 327 328 329 328 329 329 328 328 328 328
335 333 335 330 319 319 320 321 325 328 329 328 328 328 328 328 328 327 326 326 326 326 326 326 326 327 327 327 327 327 327 327 326
336 334 333 330 321 319 321 320 325 329 327 326 325 324 325 326 325 325 326 326 326 326 326 326 326 325 326 327 326 327 327 327 326
336 334 333 332 323 318 321 324 329 328 326 325 325 325 326 324 326 327 327 325 325 325 326 325 325 325 326 326 326 326 327 327 326
335 334 332 331 325 320 322 326 328 328 326 327 327 325 327 327 327 326 326 326 325 325 325 325 326 326 327 327 327 326 326 325 324
335 334 332 331 327 322 322 327 328 327 326 329 329 323 325 325 326 326 326 327 327 327 326 326 326 325 325 325 325 324 323 323 323
333 333 332 332 328 325 323 325 327 327 326 328 329 328 327 324 324 325 325 326 326 325 324 324 324 323 324 324 323 321 321 321 320
334 333 332 331 329 328 325 325 325 327 327 329 328 327 327 326 323 323 322 323 323 324 323 322 322 322 321 321 320 319 319 320 319